Observation data for Crowell on 11/17/2019      Previous  Date       Current Mesonet Observations  Soil Data  Daily Summary Page  Observations in Plain Language
KCR1 170600Z 17006KT 10/02 A2999 RMK A01 T00970015  RH  057%=      5-min Rain = 0
KCR1 170601Z 17005KT 10/02 A2999 RMK A01 T00960015  RH  057%=      5-min Rain = 0
KCR1 170602Z 16005KT 10/02 A2999 RMK A01 T00960016  RH  057%=      5-min Rain = 0
KCR1 170603Z 17005KT 10/02 A2999 RMK A01 T00960016  RH  058%=      5-min Rain = 0
KCR1 170604Z 17005KT 10/02 A2999 RMK A01 T00950016  RH  058%=      5-min Rain = 0
KCR1 170605Z 17005KT 09/02 A2999 RMK A01 T00940016  RH  058%=      5-min Rain = 0
KCR1 170606Z 17005KT 09/02 A2999 RMK A01 T00940016  RH  058%=      5-min Rain = 0
KCR1 170607Z 17005KT 09/02 A2999 RMK A01 T00940016  RH  058%=      5-min Rain = 0
KCR1 170608Z 16005KT 09/02 A2999 RMK A01 T00940017  RH  059%=      5-min Rain = 0
KCR1 170609Z 17005KT 09/02 A2999 RMK A01 T00940017  RH  059%=      5-min Rain = 0
KCR1 170610Z 17005KT 09/02 A2999 RMK A01 T00940016  RH  059%=      5-min Rain = 0
KCR1 170611Z 17005KT 09/02 A2999 RMK A01 T00940017  RH  059%=      5-min Rain = 0
KCR1 170612Z 16004KT 09/02 A2999 RMK A01 T00940016  RH  059%=      5-min Rain = 0
KCR1 170613Z 16005KT 09/02 A2999 RMK A01 T00930016  RH  059%=      5-min Rain = 0
KCR1 170614Z 16004KT 09/02 A2999 RMK A01 T00920016  RH  059%=      5-min Rain = 0
KCR1 170615Z 16004KT 09/02 A2999 RMK A01 T00910016  RH  059%=      5-min Rain = 0
KCR1 170616Z 16004KT 09/02 A2999 RMK A01 T00910016  RH  060%=      5-min Rain = 0
KCR1 170617Z 15004KT 09/02 A2999 RMK A01 T00900016  RH  060%=      5-min Rain = 0
KCR1 170618Z 15003KT 09/02 A2999 RMK A01 T00890016  RH  060%=      5-min Rain = 0
KCR1 170619Z 15003KT 09/02 A2999 RMK A01 T00880016  RH  060%=      5-min Rain = 0
KCR1 170620Z 16004KT 09/02 A2999 RMK A01 T00870016  RH  061%=      5-min Rain = 0
KCR1 170621Z 16003KT 09/02 A2999 RMK A01 T00860016  RH  061%=      5-min Rain = 0
KCR1 170622Z 16004KT 09/02 A2999 RMK A01 T00860016  RH  061%=      5-min Rain = 0
KCR1 170623Z 16003KT 09/02 A2999 RMK A01 T00850015  RH  062%=      5-min Rain = 0
KCR1 170624Z 16004KT 08/02 A2999 RMK A01 T00840015  RH  062%=      5-min Rain = 0
KCR1 170625Z 16004KT 09/02 A2999 RMK A01 T00850016  RH  062%=      5-min Rain = 0
KCR1 170626Z 17004KT 08/02 A2999 RMK A01 T00840015  RH  062%=      5-min Rain = 0
KCR1 170627Z 17004KT 08/02 A2999 RMK A01 T00840016  RH  062%=      5-min Rain = 0
KCR1 170628Z 17004KT 08/02 A2999 RMK A01 T00840016  RH  062%=      5-min Rain = 0
KCR1 170629Z 17004KT 08/02 A2999 RMK A01 T00840016  RH  062%=      5-min Rain = 0
KCR1 170630Z 17003KT 08/02 A2999 RMK A01 T00840016  RH  062%=      5-min Rain = 0
KCR1 170631Z 17004KT 08/02 A2999 RMK A01 T00840016  RH  062%=      5-min Rain = 0
KCR1 170632Z 16004KT 08/02 A2999 RMK A01 T00840016  RH  062%=      5-min Rain = 0
KCR1 170633Z 16004KT 08/02 A2999 RMK A01 T00840016  RH  063%=      5-min Rain = 0
KCR1 170634Z 16004KT 08/02 A2999 RMK A01 T00830017  RH  063%=      5-min Rain = 0
KCR1 170635Z 16004KT 08/02 A2999 RMK A01 T00830017  RH  063%=      5-min Rain = 0
KCR1 170636Z 16004KT 08/02 A2999 RMK A01 T00830017  RH  063%=      5-min Rain = 0
KCR1 170637Z 16004KT 08/02 A2999 RMK A01 T00830017  RH  063%=      5-min Rain = 0
KCR1 170638Z 16005KT 08/02 A2999 RMK A01 T00830018  RH  063%=      5-min Rain = 0
KCR1 170639Z 16005KT 08/02 A2999 RMK A01 T00830017  RH  063%=      5-min Rain = 0
KCR1 170640Z 17005KT 08/02 A2999 RMK A01 T00830017  RH  063%=      5-min Rain = 0
KCR1 170641Z 17006KT 08/02 A2999 RMK A01 T00830017  RH  063%=      5-min Rain = 0
KCR1 170642Z 17005KT 08/02 A2999 RMK A01 T00840018  RH  063%=      5-min Rain = 0
KCR1 170643Z 17005KT 08/02 A2999 RMK A01 T00830018  RH  063%=      5-min Rain = 0
KCR1 170644Z 17005KT 08/02 A2998 RMK A01 T00840018  RH  063%=      5-min Rain = 0
KCR1 170645Z 17005KT 08/02 A2998 RMK A01 T00840019  RH  064%=      5-min Rain = 0
KCR1 170646Z 17005KT 08/02 A2998 RMK A01 T00830019  RH  064%=      5-min Rain = 0
KCR1 170647Z 17005KT 08/02 A2998 RMK A01 T00830019  RH  064%=      5-min Rain = 0
KCR1 170648Z 17004KT 08/02 A2998 RMK A01 T00830019  RH  064%=      5-min Rain = 0
KCR1 170649Z 16004KT 08/02 A2998 RMK A01 T00830019  RH  064%=      5-min Rain = 0
KCR1 170650Z 16004KT 08/02 A2998 RMK A01 T00820019  RH  064%=      5-min Rain = 0
KCR1 170651Z 16003KT 08/02 A2998 RMK A01 T00820019  RH  065%=      5-min Rain = 0
KCR1 170652Z 16003KT 08/02 A2998 RMK A01 T00810019  RH  065%=      5-min Rain = 0
KCR1 170653Z 16003KT 08/02 A2998 RMK A01 T00810019  RH  065%=      5-min Rain = 0
KCR1 170654Z 16002KT 08/02 A2998 RMK A01 T00810019  RH  065%=      5-min Rain = 0
KCR1 170655Z 16002KT 08/02 A2998 RMK A01 T00810019  RH  065%=      5-min Rain = 0
KCR1 170656Z 16002KT 08/02 A2998 RMK A01 T00810019  RH  065%=      5-min Rain = 0
KCR1 170657Z 16003KT 08/02 A2998 RMK A01 T00810019  RH  065%=      5-min Rain = 0
KCR1 170658Z 16003KT 08/02 A2998 RMK A01 T00810019  RH  065%=      5-min Rain = 0
KCR1 170659Z 17003KT 08/02 A2998 RMK A01 T00810019  RH  065%=      5-min Rain = 0
KCR1 170700Z 17003KT 08/02 A2998 RMK A01 T00810019  RH  065%=      5-min Rain = 0
KCR1 170701Z 17004KT 08/02 A2998 RMK A01 T00810019  RH  065%=      5-min Rain = 0
KCR1 170702Z 17004KT 08/02 A2998 RMK A01 T00810019  RH  065%=      5-min Rain = 0
KCR1 170703Z 17004KT 08/02 A2998 RMK A01 T00810019  RH  065%=      5-min Rain = 0
KCR1 170704Z 17004KT 08/02 A2998 RMK A01 T00810019  RH  065%=      5-min Rain = 0
KCR1 170705Z 17004KT 08/02 A2998 RMK A01 T00810020  RH  065%=      5-min Rain = 0
KCR1 170706Z 17003KT 08/02 A2998 RMK A01 T00810020  RH  065%=      5-min Rain = 0
KCR1 170707Z 17003KT 08/02 A2998 RMK A01 T00810020  RH  065%=      5-min Rain = 0
KCR1 170708Z 16004KT 08/02 A2998 RMK A01 T00820021  RH  065%=      5-min Rain = 0
KCR1 170709Z 16004KT 08/02 A2998 RMK A01 T00820020  RH  065%=      5-min Rain = 0
KCR1 170710Z 16004KT 08/02 A2998 RMK A01 T00820021  RH  065%=      5-min Rain = 0
KCR1 170711Z 16004KT 08/02 A2998 RMK A01 T00820021  RH  065%=      5-min Rain = 0
KCR1 170712Z 16004KT 08/02 A2998 RMK A01 T00820021  RH  065%=      5-min Rain = 0
KCR1 170713Z 16004KT 08/02 A2998 RMK A01 T00820021  RH  065%=      5-min Rain = 0
KCR1 170714Z 16004KT 08/02 A2998 RMK A01 T00820021  RH  065%=      5-min Rain = 0
KCR1 170715Z 15004KT 08/02 A2998 RMK A01 T00820021  RH  065%=      5-min Rain = 0
KCR1 170716Z 15004KT 08/02 A2998 RMK A01 T00820021  RH  065%=      5-min Rain = 0
KCR1 170717Z 15004KT 08/02 A2998 RMK A01 T00810021  RH  066%=      5-min Rain = 0
KCR1 170718Z 15004KT 08/02 A2998 RMK A01 T00810021  RH  066%=      5-min Rain = 0
KCR1 170719Z 15004KT 08/02 A2998 RMK A01 T00810020  RH  065%=      5-min Rain = 0
KCR1 170720Z 15004KT 08/02 A2998 RMK A01 T00810021  RH  066%=      5-min Rain = 0
KCR1 170721Z 15004KT 08/02 A2998 RMK A01 T00810021  RH  066%=      5-min Rain = 0
KCR1 170722Z 15004KT 08/02 A2998 RMK A01 T00810021  RH  066%=      5-min Rain = 0
KCR1 170723Z 15004KT 08/02 A2998 RMK A01 T00810022  RH  066%=      5-min Rain = 0
KCR1 170724Z 15004KT 08/02 A2998 RMK A01 T00810022  RH  067%=      5-min Rain = 0
KCR1 170725Z 15005KT 08/02 A2997 RMK A01 T00800022  RH  067%=      5-min Rain = 0
KCR1 170726Z 15005KT 08/02 A2997 RMK A01 T00800022  RH  067%=      5-min Rain = 0
KCR1 170727Z 15005KT 08/02 A2997 RMK A01 T00800022  RH  067%=      5-min Rain = 0
KCR1 170728Z 15005KT 08/02 A2997 RMK A01 T00800021  RH  066%=      5-min Rain = 0
KCR1 170729Z 15005KT 08/02 A2997 RMK A01 T00800021  RH  066%=      5-min Rain = 0
KCR1 170730Z 15005KT 08/02 A2997 RMK A01 T00790020  RH  066%=      5-min Rain = 0
KCR1 170731Z 16005KT 08/02 A2997 RMK A01 T00790020  RH  067%=      5-min Rain = 0
KCR1 170732Z 16005KT 08/02 A2997 RMK A01 T00780020  RH  067%=      5-min Rain = 0
KCR1 170733Z 16005KT 08/02 A2997 RMK A01 T00770020  RH  067%=      5-min Rain = 0
KCR1 170734Z 16005KT 08/02 A2997 RMK A01 T00770020  RH  067%=      5-min Rain = 0
KCR1 170735Z 16005KT 08/02 A2997 RMK A01 T00760020  RH  068%=      5-min Rain = 0
KCR1 170736Z 17005KT 08/02 A2997 RMK A01 T00750020  RH  068%=      5-min Rain = 0
KCR1 170737Z 17006KT 08/02 A2997 RMK A01 T00750020  RH  068%=      5-min Rain = 0
KCR1 170738Z 17005KT 07/02 A2997 RMK A01 T00740020  RH  069%=      5-min Rain = 0
KCR1 170739Z 17006KT 07/02 A2997 RMK A01 T00730020  RH  069%=      5-min Rain = 0
KCR1 170740Z 17006KT 07/02 A2997 RMK A01 T00720020  RH  069%=      5-min Rain = 0
KCR1 170741Z 17006KT 07/02 A2997 RMK A01 T00720021  RH  070%=      5-min Rain = 0
KCR1 170742Z 17006KT 07/02 A2997 RMK A01 T00720020  RH  070%=      5-min Rain = 0
KCR1 170743Z 17006KT 07/02 A2997 RMK A01 T00710020  RH  070%=      5-min Rain = 0
KCR1 170744Z 17007KT 07/02 A2997 RMK A01 T00710021  RH  070%=      5-min Rain = 0
KCR1 170745Z 17007KT 07/02 A2997 RMK A01 T00700020  RH  071%=      5-min Rain = 0
KCR1 170746Z 17007KT 07/02 A2997 RMK A01 T00700021  RH  071%=      5-min Rain = 0
KCR1 170747Z 17006KT 07/02 A2997 RMK A01 T00700020  RH  071%=      5-min Rain = 0
KCR1 170748Z 17006KT 07/02 A2997 RMK A01 T00700020  RH  071%=      5-min Rain = 0
KCR1 170749Z 17006KT 07/02 A2997 RMK A01 T00700020  RH  071%=      5-min Rain = 0
KCR1 170750Z 17005KT 07/02 A2997 RMK A01 T00700021  RH  071%=      5-min Rain = 0
KCR1 170751Z 17005KT 07/02 A2997 RMK A01 T00700021  RH  071%=      5-min Rain = 0
KCR1 170752Z 17005KT 07/02 A2997 RMK A01 T00700021  RH  071%=      5-min Rain = 0
KCR1 170753Z 17005KT 07/02 A2997 RMK A01 T00690021  RH  071%=      5-min Rain = 0
KCR1 170754Z 17005KT 07/02 A2997 RMK A01 T00690020  RH  071%=      5-min Rain = 0
KCR1 170755Z 17005KT 07/02 A2997 RMK A01 T00680020  RH  071%=      5-min Rain = 0
KCR1 170756Z 17005KT 07/02 A2997 RMK A01 T00670020  RH  072%=      5-min Rain = 0
KCR1 170757Z 18005KT 07/02 A2997 RMK A01 T00670020  RH  072%=      5-min Rain = 0
KCR1 170758Z 18006KT 07/02 A2997 RMK A01 T00670020  RH  072%=      5-min Rain = 0
KCR1 170759Z 18007KT 07/02 A2997 RMK A01 T00670020  RH  072%=      5-min Rain = 0
KCR1 170800Z 18007KT 07/02 A2997 RMK A01 T00670020  RH  072%=      5-min Rain = 0
KCR1 170801Z 18007KT 07/02 A2997 RMK A01 T00680020  RH  072%=      5-min Rain = 0
KCR1 170802Z 18007KT 07/02 A2997 RMK A01 T00690021  RH  071%=      5-min Rain = 0
KCR1 170803Z 18008KT 07/02 A2997 RMK A01 T00690020  RH  071%=      5-min Rain = 0
KCR1 170804Z 18008KT 07/02 A2996 RMK A01 T00700020  RH  071%=      5-min Rain = 0
KCR1 170805Z 18008KT 07/02 A2996 RMK A01 T00700020  RH  071%=      5-min Rain = 0
KCR1 170806Z 18008KT 07/02 A2996 RMK A01 T00700020  RH  071%=      5-min Rain = 0
KCR1 170807Z 18008KT 07/02 A2996 RMK A01 T00710021  RH  070%=      5-min Rain = 0
KCR1 170808Z 18007KT 07/02 A2996 RMK A01 T00710021  RH  070%=      5-min Rain = 0
KCR1 170809Z 18008KT 07/02 A2996 RMK A01 T00720021  RH  070%=      5-min Rain = 0
KCR1 170810Z 18007KT 07/02 A2996 RMK A01 T00720021  RH  070%=      5-min Rain = 0
KCR1 170811Z 18007KT 07/02 A2996 RMK A01 T00720021  RH  070%=      5-min Rain = 0
KCR1 170812Z 18007KT 07/02 A2996 RMK A01 T00730021  RH  070%=      5-min Rain = 0
KCR1 170813Z 18007KT 07/02 A2996 RMK A01 T00730021  RH  069%=      5-min Rain = 0
KCR1 170814Z 18006KT 07/02 A2996 RMK A01 T00740021  RH  069%=      5-min Rain = 0
KCR1 170815Z 18006KT 07/02 A2996 RMK A01 T00740021  RH  069%=      5-min Rain = 0
KCR1 170816Z 18006KT 07/02 A2996 RMK A01 T00740021  RH  069%=      5-min Rain = 0
KCR1 170817Z 18006KT 07/02 A2996 RMK A01 T00740021  RH  069%=      5-min Rain = 0
KCR1 170818Z 18007KT 07/02 A2996 RMK A01 T00740021  RH  069%=      5-min Rain = 0
KCR1 170819Z 18006KT 07/02 A2996 RMK A01 T00730021  RH  069%=      5-min Rain = 0
KCR1 170820Z 18007KT 07/02 A2996 RMK A01 T00730021  RH  070%=      5-min Rain = 0
KCR1 170821Z 18007KT 07/02 A2996 RMK A01 T00720021  RH  070%=      5-min Rain = 0
KCR1 170822Z 18006KT 07/02 A2996 RMK A01 T00720021  RH  070%=      5-min Rain = 0
KCR1 170823Z 19006KT 07/02 A2996 RMK A01 T00720021  RH  070%=      5-min Rain = 0
KCR1 170824Z 19005KT 07/02 A2997 RMK A01 T00730021  RH  070%=      5-min Rain = 0
KCR1 170825Z 19005KT 07/02 A2997 RMK A01 T00720021  RH  070%=      5-min Rain = 0
KCR1 170826Z 19005KT 07/02 A2997 RMK A01 T00720021  RH  070%=      5-min Rain = 0
KCR1 170827Z 19005KT 07/02 A2997 RMK A01 T00710021  RH  070%=      5-min Rain = 0
KCR1 170828Z 20005KT 07/02 A2997 RMK A01 T00710021  RH  070%=      5-min Rain = 0
KCR1 170829Z 20005KT 07/02 A2997 RMK A01 T00710020  RH  070%=      5-min Rain = 0
KCR1 170830Z 20005KT 07/02 A2997 RMK A01 T00720021  RH  070%=      5-min Rain = 0
KCR1 170831Z 20005KT 07/02 A2997 RMK A01 T00720020  RH  070%=      5-min Rain = 0
KCR1 170832Z 19004KT 07/02 A2997 RMK A01 T00730020  RH  069%=      5-min Rain = 0
KCR1 170833Z 19005KT 07/02 A2997 RMK A01 T00730020  RH  069%=      5-min Rain = 0
KCR1 170834Z 19004KT 07/02 A2997 RMK A01 T00740020  RH  069%=      5-min Rain = 0
KCR1 170835Z 19004KT 07/02 A2997 RMK A01 T00730020  RH  069%=      5-min Rain = 0
KCR1 170836Z 19004KT 07/02 A2997 RMK A01 T00720020  RH  069%=      5-min Rain = 0
KCR1 170837Z 19004KT 07/02 A2997 RMK A01 T00710020  RH  070%=      5-min Rain = 0
KCR1 170838Z 19004KT 07/02 A2997 RMK A01 T00710020  RH  070%=      5-min Rain = 0
KCR1 170839Z 20004KT 07/02 A2997 RMK A01 T00710020  RH  070%=      5-min Rain = 0
KCR1 170840Z 20004KT 07/02 A2997 RMK A01 T00710020  RH  070%=      5-min Rain = 0
KCR1 170841Z 19004KT 07/02 A2997 RMK A01 T00710020  RH  070%=      5-min Rain = 0
KCR1 170842Z 19004KT 07/02 A2997 RMK A01 T00710020  RH  070%=      5-min Rain = 0
KCR1 170843Z 19004KT 07/02 A2997 RMK A01 T00710019  RH  070%=      5-min Rain = 0
KCR1 170844Z 19004KT 07/02 A2997 RMK A01 T00710019  RH  069%=      5-min Rain = 0
KCR1 170845Z 18004KT 07/02 A2997 RMK A01 T00710019  RH  070%=      5-min Rain = 0
KCR1 170846Z 18003KT 07/02 A2997 RMK A01 T00710019  RH  070%=      5-min Rain = 0
KCR1 170847Z 18004KT 07/02 A2997 RMK A01 T00710019  RH  070%=      5-min Rain = 0
KCR1 170848Z 18004KT 07/02 A2997 RMK A01 T00710019  RH  070%=      5-min Rain = 0
KCR1 170849Z 18003KT 07/02 A2997 RMK A01 T00710019  RH  070%=      5-min Rain = 0
KCR1 170850Z 18003KT 07/02 A2997 RMK A01 T00710019  RH  070%=      5-min Rain = 0
KCR1 170851Z 18003KT 07/02 A2997 RMK A01 T00700019  RH  070%=      5-min Rain = 0
KCR1 170852Z 19003KT 07/02 A2997 RMK A01 T00710019  RH  070%=      5-min Rain = 0
KCR1 170853Z 18004KT 07/02 A2997 RMK A01 T00710019  RH  070%=      5-min Rain = 0
KCR1 170854Z 19004KT 07/02 A2997 RMK A01 T00710019  RH  070%=      5-min Rain = 0
KCR1 170855Z 19004KT 07/02 A2997 RMK A01 T00710019  RH  070%=      5-min Rain = 0
KCR1 170856Z 19003KT 07/02 A2997 RMK A01 T00710019  RH  070%=      5-min Rain = 0
KCR1 170857Z 19003KT 07/02 A2997 RMK A01 T00700019  RH  070%=      5-min Rain = 0
KCR1 170858Z 20003KT 07/02 A2997 RMK A01 T00700020  RH  070%=      5-min Rain = 0
KCR1 170859Z 21003KT 07/02 A2997 RMK A01 T00700020  RH  070%=      5-min Rain = 0
KCR1 170900Z 21003KT 07/02 A2998 RMK A01 T00700020  RH  070%=      5-min Rain = 0
KCR1 170901Z 22003KT 07/02 A2998 RMK A01 T00700020  RH  071%=      5-min Rain = 0
KCR1 170902Z 23002KT 07/02 A2998 RMK A01 T00690020  RH  071%=      5-min Rain = 0
KCR1 170903Z 22002KT 07/02 A2998 RMK A01 T00680019  RH  071%=      5-min Rain = 0
KCR1 170904Z 21003KT 07/02 A2997 RMK A01 T00690021  RH  072%=      5-min Rain = 0
KCR1 170905Z 22003KT 07/02 A2997 RMK A01 T00690021  RH  072%=      5-min Rain = 0
KCR1 170906Z 21003KT 07/02 A2997 RMK A01 T00690022  RH  072%=      5-min Rain = 0
KCR1 170907Z 21003KT 07/02 A2997 RMK A01 T00690022  RH  072%=      5-min Rain = 0
KCR1 170908Z 21003KT 07/02 A2997 RMK A01 T00690022  RH  072%=      5-min Rain = 0
KCR1 170909Z 20003KT 07/02 A2997 RMK A01 T00700023  RH  072%=      5-min Rain = 0
KCR1 170910Z 20003KT 07/02 A2997 RMK A01 T00710023  RH  072%=      5-min Rain = 0
KCR1 170911Z 20003KT 07/02 A2997 RMK A01 T00710023  RH  071%=      5-min Rain = 0
KCR1 170912Z 20002KT 07/02 A2997 RMK A01 T00710022  RH  071%=      5-min Rain = 0
KCR1 170913Z 20002KT 07/02 A2997 RMK A01 T00710022  RH  071%=      5-min Rain = 0
KCR1 170914Z 21002KT 07/02 A2997 RMK A01 T00710022  RH  071%=      5-min Rain = 0
KCR1 170915Z 20002KT 07/02 A2997 RMK A01 T00710022  RH  071%=      5-min Rain = 0
KCR1 170916Z 20002KT 07/02 A2997 RMK A01 T00710022  RH  071%=      5-min Rain = 0
KCR1 170917Z 20002KT 07/02 A2997 RMK A01 T00710023  RH  071%=      5-min Rain = 0
KCR1 170918Z 19002KT 07/02 A2997 RMK A01 T00710023  RH  071%=      5-min Rain = 0
KCR1 170919Z 20003KT 07/02 A2997 RMK A01 T00710023  RH  071%=      5-min Rain = 0
KCR1 170920Z 20003KT 07/02 A2997 RMK A01 T00700023  RH  072%=      5-min Rain = 0
KCR1 170921Z 20003KT 07/02 A2997 RMK A01 T00710023  RH  072%=      5-min Rain = 0
KCR1 170922Z 20003KT 07/02 A2997 RMK A01 T00710023  RH  072%=      5-min Rain = 0
KCR1 170923Z 20003KT 07/02 A2997 RMK A01 T00710023  RH  072%=      5-min Rain = 0
KCR1 170924Z 20003KT 07/02 A2997 RMK A01 T00710023  RH  072%=      5-min Rain = 0
KCR1 170925Z 20003KT 07/02 A2997 RMK A01 T00710024  RH  072%=      5-min Rain = 0
KCR1 170926Z 20003KT 07/02 A2997 RMK A01 T00710023  RH  072%=      5-min Rain = 0
KCR1 170927Z 20004KT 07/02 A2997 RMK A01 T00700023  RH  072%=      5-min Rain = 0
KCR1 170928Z 20004KT 07/02 A2997 RMK A01 T00690023  RH  072%=      5-min Rain = 0
KCR1 170929Z 20004KT 07/02 A2997 RMK A01 T00690023  RH  072%=      5-min Rain = 0
KCR1 170930Z 19004KT 07/02 A2997 RMK A01 T00680023  RH  073%=      5-min Rain = 0
KCR1 170931Z 20004KT 07/02 A2997 RMK A01 T00680023  RH  073%=      5-min Rain = 0
KCR1 170932Z 20005KT 07/02 A2997 RMK A01 T00670023  RH  073%=      5-min Rain = 0
KCR1 170933Z 20005KT 07/02 A2997 RMK A01 T00660022  RH  074%=      5-min Rain = 0
KCR1 170934Z 20005KT 07/02 A2997 RMK A01 T00650023  RH  074%=      5-min Rain = 0
KCR1 170935Z 20005KT 07/02 A2997 RMK A01 T00650023  RH  075%=      5-min Rain = 0
KCR1 170936Z 20005KT 06/02 A2997 RMK A01 T00640024  RH  075%=      5-min Rain = 0
KCR1 170937Z 20005KT 06/02 A2997 RMK A01 T00640024  RH  075%=      5-min Rain = 0
KCR1 170938Z 21005KT 07/02 A2997 RMK A01 T00650024  RH  075%=      5-min Rain = 0
KCR1 170939Z 21005KT 07/02 A2997 RMK A01 T00650024  RH  075%=      5-min Rain = 0
KCR1 170940Z 21005KT 07/02 A2997 RMK A01 T00650024  RH  075%=      5-min Rain = 0
KCR1 170941Z 22005KT 07/03 A2998 RMK A01 T00660025  RH  075%=      5-min Rain = 0
KCR1 170942Z 21005KT 07/02 A2998 RMK A01 T00650024  RH  075%=      5-min Rain = 0
KCR1 170943Z 21005KT 07/02 A2998 RMK A01 T00660024  RH  075%=      5-min Rain = 0
KCR1 170944Z 21005KT 07/02 A2998 RMK A01 T00660024  RH  074%=      5-min Rain = 0
KCR1 170945Z 21005KT 07/02 A2998 RMK A01 T00660023  RH  074%=      5-min Rain = 0
KCR1 170946Z 21005KT 06/02 A2998 RMK A01 T00640023  RH  075%=      5-min Rain = 0
KCR1 170947Z 21005KT 06/02 A2998 RMK A01 T00640023  RH  075%=      5-min Rain = 0
KCR1 170948Z 21005KT 06/02 A2998 RMK A01 T00630023  RH  076%=      5-min Rain = 0
KCR1 170949Z 22005KT 06/02 A2998 RMK A01 T00640023  RH  075%=      5-min Rain = 0
KCR1 170950Z 21005KT 06/02 A2998 RMK A01 T00640023  RH  075%=      5-min Rain = 0
KCR1 170951Z 20006KT 06/02 A2998 RMK A01 T00640024  RH  075%=      5-min Rain = 0
KCR1 170952Z 20006KT 06/02 A2997 RMK A01 T00640024  RH  075%=      5-min Rain = 0
KCR1 170953Z 20006KT 06/02 A2997 RMK A01 T00640024  RH  076%=      5-min Rain = 0
KCR1 170954Z 20006KT 06/02 A2997 RMK A01 T00630023  RH  076%=      5-min Rain = 0
KCR1 170955Z 20006KT 06/02 A2997 RMK A01 T00620023  RH  076%=      5-min Rain = 0
KCR1 170956Z 21005KT 06/02 A2997 RMK A01 T00610023  RH  077%=      5-min Rain = 0
KCR1 170957Z 21005KT 06/02 A2997 RMK A01 T00610023  RH  077%=      5-min Rain = 0
KCR1 170958Z 21006KT 06/02 A2997 RMK A01 T00610024  RH  077%=      5-min Rain = 0
KCR1 170959Z 21006KT 06/03 A2997 RMK A01 T00620025  RH  077%=      5-min Rain = 0
KCR1 171000Z 21006KT 06/02 A2997 RMK A01 T00610024  RH  077%=      5-min Rain = 0
KCR1 171001Z 21006KT 06/02 A2997 RMK A01 T00610024  RH  077%=      5-min Rain = 0
KCR1 171002Z 21005KT 06/02 A2997 RMK A01 T00610024  RH  077%=      5-min Rain = 0
KCR1 171003Z 21006KT 06/02 A2997 RMK A01 T00610024  RH  077%=      5-min Rain = 0
KCR1 171004Z 21006KT 06/02 A2997 RMK A01 T00620024  RH  077%=      5-min Rain = 0
KCR1 171005Z 21006KT 06/02 A2997 RMK A01 T00620024  RH  076%=      5-min Rain = 0
KCR1 171006Z 21006KT 06/02 A2997 RMK A01 T00620023  RH  076%=      5-min Rain = 0
KCR1 171007Z 21006KT 06/02 A2997 RMK A01 T00620023  RH  076%=      5-min Rain = 0
KCR1 171008Z 21005KT 06/02 A2997 RMK A01 T00620023  RH  076%=      5-min Rain = 0
KCR1 171009Z 21005KT 06/02 A2997 RMK A01 T00620024  RH  076%=      5-min Rain = 0
KCR1 171010Z 21004KT 06/02 A2997 RMK A01 T00630024  RH  076%=      5-min Rain = 0
KCR1 171011Z 22004KT 06/02 A2998 RMK A01 T00620024  RH  076%=      5-min Rain = 0
KCR1 171012Z 21003KT 06/02 A2998 RMK A01 T00620023  RH  076%=      5-min Rain = 0
KCR1 171013Z 22003KT 06/02 A2998 RMK A01 T00630023  RH  076%=      5-min Rain = 0
KCR1 171014Z 22003KT 06/02 A2998 RMK A01 T00630023  RH  076%=      5-min Rain = 0
KCR1 171015Z 22003KT 06/02 A2998 RMK A01 T00630023  RH  076%=      5-min Rain = 0
KCR1 171016Z 22003KT 06/02 A2998 RMK A01 T00630023  RH  076%=      5-min Rain = 0
KCR1 171017Z 21003KT 06/02 A2998 RMK A01 T00630023  RH  076%=      5-min Rain = 0
KCR1 171018Z 21004KT 06/02 A2998 RMK A01 T00620022  RH  076%=      5-min Rain = 0
KCR1 171019Z 21004KT 06/02 A2998 RMK A01 T00610022  RH  076%=      5-min Rain = 0
KCR1 171020Z 20004KT 06/02 A2998 RMK A01 T00600022  RH  077%=      5-min Rain = 0
KCR1 171021Z 20003KT 06/02 A2998 RMK A01 T00600022  RH  077%=      5-min Rain = 0
KCR1 171022Z 20003KT 06/02 A2998 RMK A01 T00600023  RH  077%=      5-min Rain = 0
KCR1 171023Z 20004KT 06/02 A2998 RMK A01 T00600022  RH  077%=      5-min Rain = 0
KCR1 171024Z 20003KT 06/02 A2998 RMK A01 T00600023  RH  077%=      5-min Rain = 0
KCR1 171025Z 21003KT 06/02 A2998 RMK A01 T00600023  RH  077%=      5-min Rain = 0
KCR1 171026Z 21003KT 06/02 A2998 RMK A01 T00600023  RH  077%=      5-min Rain = 0
KCR1 171027Z 21003KT 06/02 A2998 RMK A01 T00600023  RH  077%=      5-min Rain = 0
KCR1 171028Z 22004KT 06/02 A2998 RMK A01 T00610023  RH  077%=      5-min Rain = 0
KCR1 171029Z 21004KT 06/02 A2998 RMK A01 T00610023  RH  077%=      5-min Rain = 0
KCR1 171030Z 22005KT 06/02 A2998 RMK A01 T00610023  RH  077%=      5-min Rain = 0
KCR1 171031Z 23004KT 06/02 A2998 RMK A01 T00610023  RH  077%=      5-min Rain = 0
KCR1 171032Z 24004KT 06/02 A2999 RMK A01 T00600023  RH  077%=      5-min Rain = 0
KCR1 171033Z 25003KT 06/02 A2999 RMK A01 T00600022  RH  077%=      5-min Rain = 0
KCR1 171034Z 25004KT 06/02 A2999 RMK A01 T00600023  RH  077%=      5-min Rain = 0
KCR1 171035Z 26004KT 06/02 A2999 RMK A01 T00590022  RH  077%=      5-min Rain = 0
KCR1 171036Z 26003KT 06/02 A2999 RMK A01 T00580021  RH  077%=      5-min Rain = 0
KCR1 171037Z 27003KT 06/02 A2999 RMK A01 T00580022  RH  077%=      5-min Rain = 0
KCR1 171038Z 27003KT 06/02 A2999 RMK A01 T00580022  RH  078%=      5-min Rain = 0
KCR1 171039Z 27003KT 06/02 A30 RMK A01 T00580022  RH  078%=      5-min Rain = 0
KCR1 171040Z 27004KT 06/02 A30 RMK A01 T00580022  RH  078%=      5-min Rain = 0
KCR1 171041Z 27004KT 06/02 A30 RMK A01 T00580023  RH  078%=      5-min Rain = 0
KCR1 171042Z 28004KT 06/02 A30 RMK A01 T00590023  RH  078%=      5-min Rain = 0
KCR1 171043Z 28004KT 06/02 A30 RMK A01 T00590023  RH  077%=      5-min Rain = 0
KCR1 171044Z 29004KT 06/02 A30 RMK A01 T00600023  RH  077%=      5-min Rain = 0
KCR1 171045Z 31005KT 06/02 A30 RMK A01 T00610024  RH  077%=      5-min Rain = 0
KCR1 171046Z 31006KT 06/02 A30 RMK A01 T00610024  RH  077%=      5-min Rain = 0
KCR1 171047Z 31006KT 06/02 A3001 RMK A01 T00610024  RH  077%=      5-min Rain = 0
KCR1 171048Z 31008KT 06/02 A3001 RMK A01 T00610024  RH  077%=      5-min Rain = 0
KCR1 171049Z 32012KT 06/02 A3002 RMK A01 T00610023  RH  077%=      5-min Rain = 0
KCR1 171050Z 32012KT 06/02 A3002 RMK A01 T00610023  RH  077%=      5-min Rain = 0
KCR1 171051Z 32010KT 06/02 A3002 RMK A01 T00600023  RH  077%=      5-min Rain = 0
KCR1 171052Z 31010KT 06/02 A3002 RMK A01 T00600023  RH  077%=      5-min Rain = 0
KCR1 171053Z 31010KT 06/02 A3002 RMK A01 T00600024  RH  078%=      5-min Rain = 0
KCR1 171054Z 31010KT 06/03 A3002 RMK A01 T00610025  RH  078%=      5-min Rain = 0
KCR1 171055Z 32011KT 06/03 A3002 RMK A01 T00620025  RH  077%=      5-min Rain = 0
KCR1 171056Z 32011KT 06/02 A3002 RMK A01 T00620024  RH  077%=      5-min Rain = 0
KCR1 171057Z 32011KT 06/02 A3002 RMK A01 T00630024  RH  076%=      5-min Rain = 0
KCR1 171058Z 32010KT 06/03 A3002 RMK A01 T00640025  RH  076%=      5-min Rain = 0
KCR1 171059Z 32010KT 06/03 A3002 RMK A01 T00640026  RH  076%=      5-min Rain = 0
KCR1 171100Z 32009KT 07/03 A3002 RMK A01 T00650026  RH  076%=      5-min Rain = 0
KCR1 171101Z 32008KT 07/03 A3001 RMK A01 T00650026  RH  076%=      5-min Rain = 0
KCR1 171102Z 32008KT 07/03 A3001 RMK A01 T00650025  RH  076%=      5-min Rain = 0
KCR1 171103Z 32008KT 06/03 A3001 RMK A01 T00640025  RH  076%=      5-min Rain = 0
KCR1 171104Z 32007KT 06/03 A3001 RMK A01 T00640025  RH  076%=      5-min Rain = 0
KCR1 171105Z 32008KT 06/03 A3002 RMK A01 T00630025  RH  076%=      5-min Rain = 0
KCR1 171106Z 32008KT 06/02 A3002 RMK A01 T00620024  RH  076%=      5-min Rain = 0
KCR1 171107Z 31008KT 06/02 A3002 RMK A01 T00620024  RH  077%=      5-min Rain = 0
KCR1 171108Z 31007KT 06/02 A3002 RMK A01 T00610023  RH  077%=      5-min Rain = 0
KCR1 171109Z 32007KT 06/02 A3002 RMK A01 T00610023  RH  077%=      5-min Rain = 0
KCR1 171110Z 32007KT 06/02 A3002 RMK A01 T00600023  RH  077%=      5-min Rain = 0
KCR1 171111Z 32007KT 06/02 A3001 RMK A01 T00600023  RH  077%=      5-min Rain = 0
KCR1 171112Z 32007KT 06/02 A3001 RMK A01 T00590023  RH  078%=      5-min Rain = 0
KCR1 171113Z 32006KT 06/02 A3001 RMK A01 T00590023  RH  077%=      5-min Rain = 0
KCR1 171114Z 32006KT 06/02 A3001 RMK A01 T00600023  RH  077%=      5-min Rain = 0
KCR1 171115Z 32007KT 06/02 A3001 RMK A01 T00590023  RH  078%=      5-min Rain = 0
KCR1 171116Z 32006KT 06/02 A3001 RMK A01 T00590023  RH  078%=      5-min Rain = 0
KCR1 171117Z 31006KT 06/02 A3001 RMK A01 T00590023  RH  078%=      5-min Rain = 0
KCR1 171118Z 31006KT 06/02 A3001 RMK A01 T00580023  RH  078%=      5-min Rain = 0
KCR1 171119Z 32006KT 06/02 A3001 RMK A01 T00580023  RH  078%=      5-min Rain = 0
KCR1 171120Z 31006KT 06/02 A3001 RMK A01 T00570022  RH  078%=      5-min Rain = 0
KCR1 171121Z 32006KT 06/02 A3001 RMK A01 T00580023  RH  078%=      5-min Rain = 0
KCR1 171122Z 32005KT 06/02 A3001 RMK A01 T00570022  RH  078%=      5-min Rain = 0
KCR1 171123Z 32006KT 06/02 A3001 RMK A01 T00570022  RH  078%=      5-min Rain = 0
KCR1 171124Z 32005KT 06/02 A3001 RMK A01 T00570023  RH  079%=      5-min Rain = 0
KCR1 171125Z 32005KT 06/02 A3001 RMK A01 T00570023  RH  079%=      5-min Rain = 0
KCR1 171126Z 32006KT 06/02 A3001 RMK A01 T00570023  RH  079%=      5-min Rain = 0
KCR1 171127Z 32006KT 06/02 A3001 RMK A01 T00560022  RH  079%=      5-min Rain = 0
KCR1 171128Z 32005KT 06/02 A3001 RMK A01 T00570022  RH  079%=      5-min Rain = 0
KCR1 171129Z 32005KT 06/02 A3001 RMK A01 T00570022  RH  078%=      5-min Rain = 0
KCR1 171130Z 32005KT 06/02 A30 RMK A01 T00570022  RH  078%=      5-min Rain = 0
KCR1 171131Z 32005KT 06/02 A30 RMK A01 T00570023  RH  078%=      5-min Rain = 0
KCR1 171132Z 32005KT 06/02 A30 RMK A01 T00570022  RH  078%=      5-min Rain = 0
KCR1 171133Z 32006KT 06/02 A30 RMK A01 T00570022  RH  078%=      5-min Rain = 0
KCR1 171134Z 32006KT 06/02 A3001 RMK A01 T00570022  RH  078%=      5-min Rain = 0
KCR1 171135Z 32006KT 06/02 A3001 RMK A01 T00570022  RH  078%=      5-min Rain = 0
KCR1 171136Z 32007KT 06/02 A3001 RMK A01 T00570022  RH  078%=      5-min Rain = 0
KCR1 171137Z 32007KT 06/02 A3001 RMK A01 T00570022  RH  078%=      5-min Rain = 0
KCR1 171138Z 33007KT 06/02 A3001 RMK A01 T00570022  RH  078%=      5-min Rain = 0
KCR1 171139Z 33006KT 06/02 A3001 RMK A01 T00570022  RH  078%=      5-min Rain = 0
KCR1 171140Z 34005KT 06/02 A3001 RMK A01 T00570022  RH  078%=      5-min Rain = 0
KCR1 171141Z 34005KT 06/02 A3001 RMK A01 T00560021  RH  078%=      5-min Rain = 0
KCR1 171142Z 35005KT 06/02 A3001 RMK A01 T00560021  RH  078%=      5-min Rain = 0
KCR1 171143Z 35005KT 06/02 A3001 RMK A01 T00550020  RH  078%=      5-min Rain = 0
KCR1 171144Z 35006KT 06/02 A3001 RMK A01 T00550020  RH  078%=      5-min Rain = 0
KCR1 171145Z 34006KT 05/02 A3001 RMK A01 T00540020  RH  079%=      5-min Rain = 0
KCR1 171146Z 34006KT 05/02 A3001 RMK A01 T00530020  RH  079%=      5-min Rain = 0
KCR1 171147Z 34006KT 05/02 A3001 RMK A01 T00520020  RH  080%=      5-min Rain = 0
KCR1 171148Z 34006KT 05/02 A3001 RMK A01 T00520020  RH  080%=      5-min Rain = 0
KCR1 171149Z 34007KT 05/02 A3001 RMK A01 T00510020  RH  080%=      5-min Rain = 0
KCR1 171150Z 35006KT 05/02 A3001 RMK A01 T00510019  RH  080%=      5-min Rain = 0
KCR1 171151Z 35006KT 05/02 A3001 RMK A01 T00500019  RH  080%=      5-min Rain = 0
KCR1 171152Z 35006KT 05/02 A3001 RMK A01 T00500019  RH  081%=      5-min Rain = 0
KCR1 171153Z 35006KT 05/02 A3001 RMK A01 T00490019  RH  081%=      5-min Rain = 0
KCR1 171154Z 34007KT 05/02 A3001 RMK A01 T00480019  RH  081%=      5-min Rain = 0
KCR1 171155Z 34007KT 05/02 A3001 RMK A01 T00470018  RH  082%=      5-min Rain = 0
KCR1 171156Z 34007KT 05/02 A3001 RMK A01 T00470018  RH  082%=      5-min Rain = 0
KCR1 171157Z 34007KT 05/02 A3002 RMK A01 T00460018  RH  082%=      5-min Rain = 0
KCR1 171158Z 34008KT 05/02 A3002 RMK A01 T00460018  RH  082%=      5-min Rain = 0
KCR1 171159Z 33009KT 05/02 A3002 RMK A01 T00450018  RH  083%=      5-min Rain = 0
KCR1 171200Z 33009KT 05/02 A3002 RMK A01 T00450019  RH  083%=      5-min Rain = 0
KCR1 171201Z 34008KT 05/02 A3002 RMK A01 T00460019  RH  083%=      5-min Rain = 0
KCR1 171202Z 34008KT 05/02 A3002 RMK A01 T00460019  RH  083%=      5-min Rain = 0
KCR1 171203Z 34008KT 05/02 A3002 RMK A01 T00460019  RH  082%=      5-min Rain = 0
KCR1 171204Z 34007KT 05/02 A3002 RMK A01 T00470019  RH  082%=      5-min Rain = 0
KCR1 171205Z 34008KT 05/02 A3002 RMK A01 T00460019  RH  082%=      5-min Rain = 0
KCR1 171206Z 34008KT 05/02 A3002 RMK A01 T00460019  RH  082%=      5-min Rain = 0
KCR1 171207Z 34008KT 05/02 A3002 RMK A01 T00460019  RH  083%=      5-min Rain = 0
KCR1 171208Z 34008KT 05/02 A3002 RMK A01 T00450019  RH  083%=      5-min Rain = 0
KCR1 171209Z 34007KT 05/02 A3002 RMK A01 T00450019  RH  083%=      5-min Rain = 0
KCR1 171210Z 34007KT 05/02 A3002 RMK A01 T00460019  RH  083%=      5-min Rain = 0
KCR1 171211Z 34007KT 05/02 A3002 RMK A01 T00450019  RH  083%=      5-min Rain = 0
KCR1 171212Z 34008KT 05/02 A3002 RMK A01 T00450019  RH  083%=      5-min Rain = 0
KCR1 171213Z 34008KT 05/02 A3002 RMK A01 T00450019  RH  083%=      5-min Rain = 0
KCR1 171214Z 33008KT 05/02 A3002 RMK A01 T00450018  RH  083%=      5-min Rain = 0
KCR1 171215Z 33009KT 05/02 A3002 RMK A01 T00450018  RH  083%=      5-min Rain = 0
KCR1 171216Z 33008KT 05/02 A3002 RMK A01 T00450018  RH  083%=      5-min Rain = 0
KCR1 171217Z 33009KT 05/02 A3002 RMK A01 T00450018  RH  083%=      5-min Rain = 0
KCR1 171218Z 34008KT 05/02 A3002 RMK A01 T00450018  RH  083%=      5-min Rain = 0
KCR1 171219Z 34008KT 05/02 A3002 RMK A01 T00450017  RH  082%=      5-min Rain = 0
KCR1 171220Z 33009KT 05/02 A3002 RMK A01 T00450017  RH  082%=      5-min Rain = 0
KCR1 171221Z 33010KT 05/02 A3003 RMK A01 T00450017  RH  082%=      5-min Rain = 0
KCR1 171222Z 33010KT 05/02 A3003 RMK A01 T00450017  RH  082%=      5-min Rain = 0
KCR1 171223Z 33010KT 05/02 A3003 RMK A01 T00450017  RH  082%=      5-min Rain = 0
KCR1 171224Z 34010KT 05/02 A3003 RMK A01 T00450017  RH  082%=      5-min Rain = 0
KCR1 171225Z 33009KT 05/02 A3003 RMK A01 T00450017  RH  082%=      5-min Rain = 0
KCR1 171226Z 34009KT 05/02 A3003 RMK A01 T00450017  RH  082%=      5-min Rain = 0
KCR1 171227Z 34009KT 04/02 A3003 RMK A01 T00440016  RH  082%=      5-min Rain = 0
KCR1 171228Z 34010KT 04/02 A3003 RMK A01 T00440016  RH  082%=      5-min Rain = 0
KCR1 171229Z 34010KT 04/02 A3003 RMK A01 T00430016  RH  082%=      5-min Rain = 0
KCR1 171230Z 34010KT 04/02 A3003 RMK A01 T00430016  RH  082%=      5-min Rain = 0
KCR1 171231Z 34010KT 04/02 A3003 RMK A01 T00430016  RH  082%=      5-min Rain = 0
KCR1 171232Z 34009KT 04/02 A3003 RMK A01 T00430016  RH  082%=      5-min Rain = 0
KCR1 171233Z 34010KT 04/02 A3003 RMK A01 T00430015  RH  082%=      5-min Rain = 0
KCR1 171234Z 34010KT 04/02 A3003 RMK A01 T00430015  RH  082%=      5-min Rain = 0
KCR1 171235Z 34010KT 04/02 A3004 RMK A01 T00430015  RH  082%=      5-min Rain = 0
KCR1 171236Z 34010KT 04/02 A3004 RMK A01 T00440015  RH  081%=      5-min Rain = 0
KCR1 171237Z 34010KT 04/02 A3004 RMK A01 T00440015  RH  081%=      5-min Rain = 0
KCR1 171238Z 34010KT 04/02 A3004 RMK A01 T00440015  RH  081%=      5-min Rain = 0
KCR1 171239Z 34009KT 04/02 A3004 RMK A01 T00440015  RH  081%=      5-min Rain = 0
KCR1 171240Z 34010KT 04/02 A3004 RMK A01 T00440015  RH  081%=      5-min Rain = 0
KCR1 171241Z 34009KT 04/02 A3004 RMK A01 T00440015  RH  081%=      5-min Rain = 0
KCR1 171242Z 34010KT 04/02 A3004 RMK A01 T00440015  RH  081%=      5-min Rain = 0
KCR1 171243Z 34010KT 04/02 A3004 RMK A01 T00440015  RH  081%=      5-min Rain = 0
KCR1 171244Z 34010KT 04/02 A3004 RMK A01 T00440015  RH  081%=      5-min Rain = 0
KCR1 171245Z 34010KT 04/02 A3004 RMK A01 T00440015  RH  081%=      5-min Rain = 0
KCR1 171246Z 34010KT 04/02 A3004 RMK A01 T00440015  RH  081%=      5-min Rain = 0
KCR1 171247Z 34010KT 05/02 A3004 RMK A01 T00450015  RH  081%=      5-min Rain = 0
KCR1 171248Z 34011KT 05/02 A3005 RMK A01 T00450015  RH  081%=      5-min Rain = 0
KCR1 171249Z 33012KT 05/02 A3005 RMK A01 T00450015  RH  081%=      5-min Rain = 0
KCR1 171250Z 34012KT 05/02 A3005 RMK A01 T00460016  RH  081%=      5-min Rain = 0
KCR1 171251Z 34010KT 05/02 A3005 RMK A01 T00470016  RH  080%=      5-min Rain = 0
KCR1 171252Z 33009KT 05/02 A3005 RMK A01 T00470016  RH  080%=      5-min Rain = 0
KCR1 171253Z 34011KT 05/02 A3005 RMK A01 T00470016  RH  080%=      5-min Rain = 0
KCR1 171254Z 33011KT 05/02 A3005 RMK A01 T00470016  RH  080%=      5-min Rain = 0
KCR1 171255Z 33011KT 05/02 A3005 RMK A01 T00470016  RH  080%=      5-min Rain = 0
KCR1 171256Z 33011KT 05/02 A3005 RMK A01 T00470016  RH  080%=      5-min Rain = 0
KCR1 171257Z 33011KT 05/02 A3005 RMK A01 T00470016  RH  080%=      5-min Rain = 0
KCR1 171258Z 33011KT 05/02 A3005 RMK A01 T00470015  RH  080%=      5-min Rain = 0
KCR1 171259Z 33012KT 05/02 A3005 RMK A01 T00470016  RH  080%=      5-min Rain = 0
KCR1 171300Z 33012KT 05/02 A3006 RMK A01 T00470016  RH  080%=      5-min Rain = 0
KCR1 171301Z 34012KT 05/02 A3006 RMK A01 T00470016  RH  080%=      5-min Rain = 0
KCR1 171302Z 33012KT 05/02 A3006 RMK A01 T00470016  RH  080%=      5-min Rain = 0
KCR1 171303Z 33012KT 05/02 A3006 RMK A01 T00470016  RH  080%=      5-min Rain = 0
KCR1 171304Z 33012KT 05/02 A3006 RMK A01 T00470016  RH  080%=      5-min Rain = 0
KCR1 171305Z 33012KT 05/02 A3006 RMK A01 T00470016  RH  080%=      5-min Rain = 0
KCR1 171306Z 34011KT 05/02 A3006 RMK A01 T00470016  RH  080%=      5-min Rain = 0
KCR1 171307Z 34011KT 05/02 A3006 RMK A01 T00470016  RH  080%=      5-min Rain = 0
KCR1 171308Z 34010KT 05/02 A3006 RMK A01 T00460016  RH  081%=      5-min Rain = 0
KCR1 171309Z 34011KT 05/02 A3006 RMK A01 T00470016  RH  081%=      5-min Rain = 0
KCR1 171310Z 34011KT 05/02 A3006 RMK A01 T00470016  RH  081%=      5-min Rain = 0
KCR1 171311Z 34011KT 05/02 A3006 RMK A01 T00470017  RH  081%=      5-min Rain = 0
KCR1 171312Z 34011KT 05/02 A3006 RMK A01 T00460016  RH  081%=      5-min Rain = 0
KCR1 171313Z 34011KT 05/02 A3006 RMK A01 T00460016  RH  081%=      5-min Rain = 0
KCR1 171314Z 34011KT 05/02 A3006 RMK A01 T00460016  RH  081%=      5-min Rain = 0
KCR1 171315Z 34012KT 05/02 A3006 RMK A01 T00460016  RH  081%=      5-min Rain = 0
KCR1 171316Z 34011KT 05/02 A3007 RMK A01 T00470017  RH  081%=      5-min Rain = 0
KCR1 171317Z 34012KT 05/02 A3007 RMK A01 T00470017  RH  081%=      5-min Rain = 0
KCR1 171318Z 34012KT 05/02 A3007 RMK A01 T00470017  RH  081%=      5-min Rain = 0
KCR1 171319Z 34012KT 05/02 A3007 RMK A01 T00470017  RH  081%=      5-min Rain = 0
KCR1 171320Z 34011KT 05/02 A3007 RMK A01 T00470017  RH  081%=      5-min Rain = 0
KCR1 171321Z 34012KT 05/02 A3007 RMK A01 T00470017  RH  081%=      5-min Rain = 0
KCR1 171322Z 33011KT 05/02 A3007 RMK A01 T00480017  RH  081%=      5-min Rain = 0
KCR1 171323Z 34012KT 05/02 A3007 RMK A01 T00480017  RH  081%=      5-min Rain = 0
KCR1 171324Z 33012KT 05/02 A3008 RMK A01 T00480017  RH  080%=      5-min Rain = 0
KCR1 171325Z 34012KT 05/02 A3008 RMK A01 T00480017  RH  080%=      5-min Rain = 0
KCR1 171326Z 34012KT 05/02 A3008 RMK A01 T00490017  RH  080%=      5-min Rain = 0
KCR1 171327Z 34011KT 05/02 A3008 RMK A01 T00490017  RH  080%=      5-min Rain = 0
KCR1 171328Z 34011KT 05/02 A3008 RMK A01 T00490018  RH  080%=      5-min Rain = 0
KCR1 171329Z 34012KT 05/02 A3008 RMK A01 T00490017  RH  080%=      5-min Rain = 0
KCR1 171330Z 34012KT 05/02 A3008 RMK A01 T00500018  RH  080%=      5-min Rain = 0
KCR1 171331Z 34011KT 05/02 A3008 RMK A01 T00500017  RH  080%=      5-min Rain = 0
KCR1 171332Z 34012KT 05/02 A3008 RMK A01 T00490017  RH  080%=      5-min Rain = 0
KCR1 171333Z 34012KT 05/02 A3008 RMK A01 T00500018  RH  080%=      5-min Rain = 0
KCR1 171334Z 34012KT 05/02 A3008 RMK A01 T00500018  RH  080%=      5-min Rain = 0
KCR1 171335Z 34012KT 05/02 A3008 RMK A01 T00500017  RH  080%=      5-min Rain = 0
KCR1 171336Z 33012KT 05/02 A3008 RMK A01 T00500018  RH  080%=      5-min Rain = 0
KCR1 171337Z 33011KT 05/02 A3008 RMK A01 T00500017  RH  079%=      5-min Rain = 0
KCR1 171338Z 34011KT 05/02 A3008 RMK A01 T00500017  RH  079%=      5-min Rain = 0
KCR1 171339Z 34012KT 05/02 A3008 RMK A01 T00500018  RH  079%=      5-min Rain = 0
KCR1 171340Z 34012KT 05/02 A3008 RMK A01 T00500017  RH  079%=      5-min Rain = 0
KCR1 171341Z 33012KT 05/02 A3008 RMK A01 T00510018  RH  079%=      5-min Rain = 0
KCR1 171342Z 34012KT 05/02 A3008 RMK A01 T00510018  RH  079%=      5-min Rain = 0
KCR1 171343Z 33011KT 05/02 A3008 RMK A01 T00520018  RH  079%=      5-min Rain = 0
KCR1 171344Z 33011KT 05/02 A3008 RMK A01 T00520018  RH  078%=      5-min Rain = 0
KCR1 171345Z 33012KT 05/02 A3008 RMK A01 T00520018  RH  078%=      5-min Rain = 0
KCR1 171346Z 34013KT 05/02 A3008 RMK A01 T00530018  RH  078%=      5-min Rain = 0
KCR1 171347Z 33011KT 05/02 A3008 RMK A01 T00540018  RH  078%=      5-min Rain = 0
KCR1 171348Z 34012KT 05/02 A3008 RMK A01 T00540018  RH  078%=      5-min Rain = 0
KCR1 171349Z 34012KT 05/02 A3009 RMK A01 T00540018  RH  077%=      5-min Rain = 0
KCR1 171350Z 34013KT 06/02 A3009 RMK A01 T00550018  RH  077%=      5-min Rain = 0
KCR1 171351Z 34012KT 06/02 A3009 RMK A01 T00550018  RH  077%=      5-min Rain = 0
KCR1 171352Z 34012KT 06/02 A3009 RMK A01 T00560018  RH  077%=      5-min Rain = 0
KCR1 171353Z 34012KT 06/02 A3009 RMK A01 T00560018  RH  077%=      5-min Rain = 0
KCR1 171354Z 34011KT 06/02 A3009 RMK A01 T00560018  RH  077%=      5-min Rain = 0
KCR1 171355Z 34012KT 06/02 A3009 RMK A01 T00560019  RH  077%=      5-min Rain = 0
KCR1 171356Z 34012KT 06/02 A3009 RMK A01 T00570019  RH  077%=      5-min Rain = 0
KCR1 171357Z 34011KT 06/02 A3009 RMK A01 T00580019  RH  076%=      5-min Rain = 0
KCR1 171358Z 34012KT 06/02 A3009 RMK A01 T00600020  RH  076%=      5-min Rain = 0
KCR1 171359Z 34013KT 06/02 A3009 RMK A01 T00610020  RH  075%=      5-min Rain = 0
KCR1 171400Z 35012KT 06/02 A3009 RMK A01 T00630020  RH  074%=      5-min Rain = 0
KCR1 171401Z 35013KT 07/02 A3009 RMK A01 T00650020  RH  073%=      5-min Rain = 0
KCR1 171402Z 34012KT 07/02 A3009 RMK A01 T00650020  RH  073%=      5-min Rain = 0
KCR1 171403Z 35014KT 07/02 A3009 RMK A01 T00660020  RH  072%=      5-min Rain = 0
KCR1 171404Z 35013KT 07/02 A3009 RMK A01 T00670020  RH  072%=      5-min Rain = 0
KCR1 171405Z 35013KT 07/02 A301 RMK A01 T00690021  RH  072%=      5-min Rain = 0
KCR1 171406Z 34014KT 07/02 A301 RMK A01 T00690021  RH  071%=      5-min Rain = 0
KCR1 171407Z 35013KT 07/02 A301 RMK A01 T00690020  RH  071%=      5-min Rain = 0
KCR1 171408Z 35012KT 07/02 A301 RMK A01 T00700021  RH  071%=      5-min Rain = 0
KCR1 171409Z 35013KT 07/02 A301 RMK A01 T00710021  RH  071%=      5-min Rain = 0
KCR1 171410Z 35013KT 07/02 A301 RMK A01 T00710021  RH  071%=      5-min Rain = 0
KCR1 171411Z 35014KT 07/02 A301 RMK A01 T00710021  RH  070%=      5-min Rain = 0
KCR1 171412Z 35015KT 07/02 A301 RMK A01 T00720021  RH  070%=      5-min Rain = 0
KCR1 171413Z 35015KT 07/02 A301 RMK A01 T00730021  RH  070%=      5-min Rain = 0
KCR1 171414Z 35014KT 07/02 A301 RMK A01 T00730021  RH  070%=      5-min Rain = 0
KCR1 171415Z 35013KT 07/02 A301 RMK A01 T00740022  RH  070%=      5-min Rain = 0
KCR1 171416Z 35013KT 07/02 A301 RMK A01 T00740021  RH  069%=      5-min Rain = 0
KCR1 171417Z 35013KT 07/02 A301 RMK A01 T00740022  RH  069%=      5-min Rain = 0
KCR1 171418Z 35014KT 08/02 A301 RMK A01 T00750022  RH  069%=      5-min Rain = 0
KCR1 171419Z 35013KT 08/02 A301 RMK A01 T00750022  RH  069%=      5-min Rain = 0
KCR1 171420Z 35013KT 08/02 A301 RMK A01 T00750022  RH  069%=      5-min Rain = 0
KCR1 171421Z 35014KT 08/02 A301 RMK A01 T00760023  RH  069%=      5-min Rain = 0
KCR1 171422Z 35014KT 08/02 A301 RMK A01 T00760022  RH  069%=      5-min Rain = 0
KCR1 171423Z 35014KT 08/02 A301 RMK A01 T00770023  RH  068%=      5-min Rain = 0
KCR1 171424Z 35014KT 08/02 A301 RMK A01 T00780023  RH  068%=      5-min Rain = 0
KCR1 171425Z 35015KT 08/02 A301 RMK A01 T00780023  RH  068%=      5-min Rain = 0
KCR1 171426Z 35013KT 08/02 A301 RMK A01 T00780023  RH  068%=      5-min Rain = 0
KCR1 171427Z 35012KT 08/02 A301 RMK A01 T00790023  RH  068%=      5-min Rain = 0
KCR1 171428Z 35012KT 08/02 A301 RMK A01 T00790024  RH  068%=      5-min Rain = 0
KCR1 171429Z 35013KT 08/02 A301 RMK A01 T00790024  RH  068%=      5-min Rain = 0
KCR1 171430Z 35012KT 08/02 A301 RMK A01 T00800024  RH  068%=      5-min Rain = 0
KCR1 171431Z 35012KT 08/03 A301 RMK A01 T00810025  RH  068%=      5-min Rain = 0
KCR1 171432Z 35011KT 08/03 A3011 RMK A01 T00820025  RH  067%=      5-min Rain = 0
KCR1 171433Z 35011KT 08/03 A3011 RMK A01 T00820025  RH  067%=      5-min Rain = 0
KCR1 171434Z 35011KT 08/03 A3011 RMK A01 T00830026  RH  067%=      5-min Rain = 0
KCR1 171435Z 35011KT 08/03 A3011 RMK A01 T00840026  RH  067%=      5-min Rain = 0
KCR1 171436Z 35012KT 09/03 A3011 RMK A01 T00850027  RH  067%=      5-min Rain = 0
KCR1 171437Z 34012KT 09/03 A3011 RMK A01 T00850027  RH  066%=      5-min Rain = 0
KCR1 171438Z 35012KT 09/03 A3011 RMK A01 T00860026  RH  066%=      5-min Rain = 0
KCR1 171439Z 35012KT 09/03 A3011 RMK A01 T00870027  RH  066%=      5-min Rain = 0
KCR1 171440Z 35011KT 09/03 A3011 RMK A01 T00880027  RH  065%=      5-min Rain = 0
KCR1 171441Z 35013KT 09/03 A3011 RMK A01 T00890027  RH  065%=      5-min Rain = 0
KCR1 171442Z 35012KT 09/03 A3011 RMK A01 T00890026  RH  065%=      5-min Rain = 0
KCR1 171443Z 35012KT 09/03 A3011 RMK A01 T00900026  RH  064%=      5-min Rain = 0
KCR1 171444Z 35012KT 09/03 A3011 RMK A01 T00910027  RH  064%=      5-min Rain = 0
KCR1 171445Z 35014KT 09/03 A3011 RMK A01 T00920027  RH  064%=      5-min Rain = 0
KCR1 171446Z 35013KT 09/03 A3011 RMK A01 T00930027  RH  064%=      5-min Rain = 0
KCR1 171447Z 35011KT 09/03 A3011 RMK A01 T00940028  RH  063%=      5-min Rain = 0
KCR1 171448Z 35011KT 10/03 A3011 RMK A01 T00950029  RH  063%=      5-min Rain = 0
KCR1 171449Z 35012G17KT 10/03 A3011 RMK A01 T00960029  RH  063%=      5-min Rain = 0
KCR1 171450Z 35016KT 10/03 A3011 RMK A01 T00970028  RH  062%=      5-min Rain = 0
KCR1 171451Z 36013KT 10/03 A3011 RMK A01 T00970027  RH  062%=      5-min Rain = 0
KCR1 171452Z 35012KT 10/03 A3011 RMK A01 T00980029  RH  062%=      5-min Rain = 0
KCR1 171453Z 35015KT 10/03 A3011 RMK A01 T00990028  RH  062%=      5-min Rain = 0
KCR1 171454Z 36014KT 10/03 A3011 RMK A01 T01000028  RH  061%=      5-min Rain = 0
KCR1 171455Z 36015KT 10/03 A3011 RMK A01 T01000028  RH  061%=      5-min Rain = 0
KCR1 171456Z 36015KT 10/03 A3012 RMK A01 T01010029  RH  061%=      5-min Rain = 0
KCR1 171457Z 36017KT 10/03 A3012 RMK A01 T01020028  RH  060%=      5-min Rain = 0
KCR1 171458Z 00013KT 10/03 A3012 RMK A01 T01020028  RH  060%=      5-min Rain = 0
KCR1 171459Z 36015KT 10/03 A3012 RMK A01 T01040030  RH  060%=      5-min Rain = 0
KCR1 171500Z 36016KT 11/03 A3012 RMK A01 T01050029  RH  060%=      5-min Rain = 0
KCR1 171501Z 36016KT 11/03 A3012 RMK A01 T01050029  RH  059%=      5-min Rain = 0
KCR1 171502Z 00015KT 11/03 A3012 RMK A01 T01050028  RH  059%=      5-min Rain = 0
KCR1 171503Z 36015KT 11/03 A3012 RMK A01 T01060029  RH  059%=      5-min Rain = 0
KCR1 171504Z 36015KT 11/03 A3012 RMK A01 T01070030  RH  059%=      5-min Rain = 0
KCR1 171505Z 00013KT 11/03 A3012 RMK A01 T01080030  RH  059%=      5-min Rain = 0
KCR1 171506Z 00015G22KT 11/03 A3012 RMK A01 T01090032  RH  059%=      5-min Rain = 0
KCR1 171507Z 00018KT 11/03 A3012 RMK A01 T01100029  RH  058%=      5-min Rain = 0
KCR1 171508Z 00016KT 11/03 A3012 RMK A01 T01100030  RH  058%=      5-min Rain = 0
KCR1 171509Z 00015KT 11/03 A3012 RMK A01 T01110031  RH  058%=      5-min Rain = 0
KCR1 171510Z 36016KT 11/03 A3012 RMK A01 T01120031  RH  058%=      5-min Rain = 0
KCR1 171511Z 36018KT 11/03 A3012 RMK A01 T01120030  RH  057%=      5-min Rain = 0
KCR1 171512Z 00016KT 11/03 A3012 RMK A01 T01130030  RH  057%=      5-min Rain = 0
KCR1 171513Z 00017KT 11/03 A3012 RMK A01 T01130031  RH  057%=      5-min Rain = 0
KCR1 171514Z 00018KT 12/03 A3012 RMK A01 T01150031  RH  056%=      5-min Rain = 0
KCR1 171515Z 00019KT 12/03 A3012 RMK A01 T01150030  RH  056%=      5-min Rain = 0
KCR1 171516Z 36018KT 12/03 A3012 RMK A01 T01160030  RH  056%=      5-min Rain = 0
KCR1 171517Z 00017G22KT 12/03 A3012 RMK A01 T01160030  RH  056%=      5-min Rain = 0
KCR1 171518Z 01017KT 12/03 A3012 RMK A01 T01180033  RH  056%=      5-min Rain = 0
KCR1 171519Z 00018KT 12/03 A3012 RMK A01 T01190032  RH  055%=      5-min Rain = 0
KCR1 171520Z 01020KT 12/03 A3012 RMK A01 T01190031  RH  055%=      5-min Rain = 0
KCR1 171521Z 01023KT 12/03 A3012 RMK A01 T01190030  RH  055%=      5-min Rain = 0
KCR1 171522Z 02018KT 12/03 A3012 RMK A01 T01190031  RH  055%=      5-min Rain = 0
KCR1 171523Z 01018KT 12/03 A3012 RMK A01 T01190032  RH  055%=      5-min Rain = 0
KCR1 171524Z 01018KT 12/03 A3012 RMK A01 T01200032  RH  055%=      5-min Rain = 0
KCR1 171525Z 01022G27KT 12/03 A3012 RMK A01 T01210031  RH  054%=      5-min Rain = 0
KCR1 171526Z 00021G26KT 12/03 A3012 RMK A01 T01210031  RH  054%=      5-min Rain = 0
KCR1 171527Z 01023KT 12/03 A3012 RMK A01 T01210031  RH  054%=      5-min Rain = 0
KCR1 171528Z 00022G28KT 12/03 A3012 RMK A01 T01210030  RH  054%=      5-min Rain = 0
KCR1 171529Z 01026KT 12/03 A3012 RMK A01 T01210030  RH  054%=      5-min Rain = 0
KCR1 171530Z 02022KT 12/03 A3012 RMK A01 T01210030  RH  054%=      5-min Rain = 0
KCR1 171531Z 01018KT 12/03 A3012 RMK A01 T01220032  RH  054%=      5-min Rain = 0
KCR1 171532Z 02020KT 12/03 A3012 RMK A01 T01240033  RH  054%=      5-min Rain = 0
KCR1 171533Z 01019KT 12/03 A3012 RMK A01 T01240032  RH  053%=      5-min Rain = 0
KCR1 171534Z 01018KT 13/03 A3012 RMK A01 T01250033  RH  054%=      5-min Rain = 0
KCR1 171535Z 01021KT 13/03 A3012 RMK A01 T01260034  RH  053%=      5-min Rain = 0
KCR1 171536Z 01025G30KT 13/03 A3012 RMK A01 T01260032  RH  053%=      5-min Rain = 0
KCR1 171537Z 01024KT 13/03 A3012 RMK A01 T01250031  RH  053%=      5-min Rain = 0
KCR1 171538Z 01025KT 12/03 A3012 RMK A01 T01240032  RH  053%=      5-min Rain = 0
KCR1 171539Z 01023KT 12/03 A3012 RMK A01 T01240031  RH  053%=      5-min Rain = 0
KCR1 171540Z 01024KT 12/03 A3012 RMK A01 T01240031  RH  053%=      5-min Rain = 0
KCR1 171541Z 01020KT 12/03 A3012 RMK A01 T01240032  RH  053%=      5-min Rain = 0
KCR1 171542Z 01020KT 13/03 A3012 RMK A01 T01250033  RH  053%=      5-min Rain = 0
KCR1 171543Z 01016KT 13/03 A3012 RMK A01 T01260034  RH  053%=      5-min Rain = 0
KCR1 171544Z 01021KT 13/04 A3012 RMK A01 T01290035  RH  053%=      5-min Rain = 0
KCR1 171545Z 01022KT 13/03 A3012 RMK A01 T01290033  RH  052%=      5-min Rain = 0
KCR1 171546Z 02020KT 13/03 A3012 RMK A01 T01280032  RH  052%=      5-min Rain = 0
KCR1 171547Z 01022KT 13/03 A3012 RMK A01 T01270033  RH  053%=      5-min Rain = 0
KCR1 171548Z 01024KT 13/03 A3012 RMK A01 T01270033  RH  052%=      5-min Rain = 0
KCR1 171549Z 02019KT 13/03 A3012 RMK A01 T01280034  RH  053%=      5-min Rain = 0
KCR1 171550Z 01023KT 13/03 A3012 RMK A01 T01280034  RH  053%=      5-min Rain = 0
KCR1 171551Z 01024KT 13/03 A3012 RMK A01 T01280033  RH  052%=      5-min Rain = 0
KCR1 171552Z 01023KT 13/03 A3012 RMK A01 T01290033  RH  052%=      5-min Rain = 0
KCR1 171553Z 01021KT 13/03 A3012 RMK A01 T01280033  RH  052%=      5-min Rain = 0
KCR1 171554Z 00022KT 13/03 A3012 RMK A01 T01290034  RH  052%=      5-min Rain = 0
KCR1 171555Z 00023KT 13/03 A3012 RMK A01 T01300034  RH  052%=      5-min Rain = 0
KCR1 171556Z 00024KT 13/03 A3012 RMK A01 T01310033  RH  052%=      5-min Rain = 0
KCR1 171557Z 00021KT 13/03 A3012 RMK A01 T01310033  RH  052%=      5-min Rain = 0
KCR1 171558Z 35021KT 13/03 A3012 RMK A01 T01310034  RH  052%=      5-min Rain = 0
KCR1 171559Z 01022KT 13/03 A3012 RMK A01 T01320034  RH  051%=      5-min Rain = 0
KCR1 171600Z 01021G26KT 13/03 A3012 RMK A01 T01320034  RH  051%=      5-min Rain = 0
KCR1 171601Z 02023KT 13/03 A3012 RMK A01 T01320033  RH  051%=      5-min Rain = 0
KCR1 171602Z 02021KT 13/03 A3012 RMK A01 T01320034  RH  051%=      5-min Rain = 0
KCR1 171603Z 01019KT 13/04 A3012 RMK A01 T01320035  RH  052%=      5-min Rain = 0
KCR1 171604Z 00021KT 13/04 A3012 RMK A01 T01340035  RH  051%=      5-min Rain = 0
KCR1 171605Z 01018KT 14/04 A3012 RMK A01 T01350035  RH  051%=      5-min Rain = 0
KCR1 171606Z 02023KT 14/04 A3012 RMK A01 T01360035  RH  051%=      5-min Rain = 0
KCR1 171607Z 02021KT 14/04 A3012 RMK A01 T01360035  RH  050%=      5-min Rain = 0
KCR1 171608Z 02022KT 14/04 A3012 RMK A01 T01360035  RH  050%=      5-min Rain = 0
KCR1 171609Z 02022KT 14/03 A3012 RMK A01 T01360034  RH  050%=      5-min Rain = 0
KCR1 171610Z 02024KT 14/03 A3012 RMK A01 T01360034  RH  050%=      5-min Rain = 0
KCR1 171611Z 02021KT 14/03 A3012 RMK A01 T01360034  RH  050%=      5-min Rain = 0
KCR1 171612Z 02022KT 14/04 A3012 RMK A01 T01360035  RH  050%=      5-min Rain = 0
KCR1 171613Z 02022KT 14/04 A3012 RMK A01 T01370035  RH  050%=      5-min Rain = 0
KCR1 171614Z 01021KT 14/04 A3012 RMK A01 T01380035  RH  050%=      5-min Rain = 0
KCR1 171615Z 02021G26KT 14/04 A3012 RMK A01 T01380035  RH  050%=      5-min Rain = 0
KCR1 171616Z 02019G24KT 14/03 A3012 RMK A01 T01380034  RH  049%=      5-min Rain = 0
KCR1 171617Z 01023KT 14/04 A3012 RMK A01 T01380035  RH  050%=      5-min Rain = 0
KCR1 171618Z 01021KT 14/04 A3012 RMK A01 T01390035  RH  049%=      5-min Rain = 0
KCR1 171619Z 01019KT 14/04 A3012 RMK A01 T01390035  RH  049%=      5-min Rain = 0
KCR1 171620Z 02021KT 14/04 A3012 RMK A01 T01410036  RH  049%=      5-min Rain = 0
KCR1 171621Z 02022KT 14/04 A3012 RMK A01 T01410035  RH  049%=      5-min Rain = 0
KCR1 171622Z 02020KT 14/04 A3012 RMK A01 T01400035  RH  049%=      5-min Rain = 0
KCR1 171623Z 02020KT 14/04 A3013 RMK A01 T01410036  RH  049%=      5-min Rain = 0
KCR1 171624Z 02020KT 14/04 A3013 RMK A01 T01420036  RH  049%=      5-min Rain = 0
KCR1 171625Z 01022KT 14/04 A3013 RMK A01 T01430035  RH  048%=      5-min Rain = 0
KCR1 171626Z 02023KT 14/03 A3013 RMK A01 T01420034  RH  048%=      5-min Rain = 0
KCR1 171627Z 02022KT 14/04 A3012 RMK A01 T01410035  RH  049%=      5-min Rain = 0
KCR1 171628Z 01020KT 14/04 A3013 RMK A01 T01410036  RH  049%=      5-min Rain = 0
KCR1 171629Z 02020KT 14/04 A3012 RMK A01 T01420035  RH  049%=      5-min Rain = 0
KCR1 171630Z 01019KT 14/04 A3012 RMK A01 T01430036  RH  048%=      5-min Rain = 0
KCR1 171631Z 01022KT 14/04 A3012 RMK A01 T01440036  RH  048%=      5-min Rain = 0
KCR1 171632Z 02021KT 14/04 A3012 RMK A01 T01440036  RH  048%=      5-min Rain = 0
KCR1 171633Z 02018KT 14/04 A3012 RMK A01 T01440035  RH  048%=      5-min Rain = 0
KCR1 171634Z 01020KT 14/04 A3012 RMK A01 T01440036  RH  048%=      5-min Rain = 0
KCR1 171635Z 02017KT 14/04 A3012 RMK A01 T01440035  RH  048%=      5-min Rain = 0
KCR1 171636Z 02014KT 15/04 A3012 RMK A01 T01460038  RH  048%=      5-min Rain = 0
KCR1 171637Z 02016KT 15/04 A3012 RMK A01 T01490039  RH  048%=      5-min Rain = 0
KCR1 171638Z 03019KT 15/04 A3012 RMK A01 T01500038  RH  047%=      5-min Rain = 0
KCR1 171639Z 03019KT 15/04 A3012 RMK A01 T01490037  RH  047%=      5-min Rain = 0
KCR1 171640Z 02019KT 15/04 A3012 RMK A01 T01480036  RH  047%=      5-min Rain = 0
KCR1 171641Z 03017KT 15/04 A3012 RMK A01 T01470036  RH  047%=      5-min Rain = 0
KCR1 171642Z 02016KT 15/04 A3012 RMK A01 T01490038  RH  047%=      5-min Rain = 0
KCR1 171643Z 02020KT 15/04 A3012 RMK A01 T01500037  RH  047%=      5-min Rain = 0
KCR1 171644Z 02022KT 15/04 A3012 RMK A01 T01490036  RH  046%=      5-min Rain = 0
KCR1 171645Z 02020KT 15/04 A3012 RMK A01 T01480035  RH  047%=      5-min Rain = 0
KCR1 171646Z 02020KT 15/04 A3012 RMK A01 T01480036  RH  047%=      5-min Rain = 0
KCR1 171647Z 03019KT 15/04 A3012 RMK A01 T01490036  RH  047%=      5-min Rain = 0
KCR1 171648Z 02019KT 15/04 A3012 RMK A01 T01500036  RH  046%=      5-min Rain = 0
KCR1 171649Z 02017KT 15/04 A3012 RMK A01 T01490036  RH  047%=      5-min Rain = 0
KCR1 171650Z 02018KT 15/04 A3012 RMK A01 T01500037  RH  047%=      5-min Rain = 0
KCR1 171651Z 02020KT 15/04 A3012 RMK A01 T01510036  RH  046%=      5-min Rain = 0
KCR1 171652Z 03019KT 15/04 A3011 RMK A01 T01510036  RH  046%=      5-min Rain = 0
KCR1 171653Z 03016KT 15/04 A3011 RMK A01 T01500036  RH  046%=      5-min Rain = 0
KCR1 171654Z 03017KT 15/04 A3011 RMK A01 T01510036  RH  046%=      5-min Rain = 0
KCR1 171655Z 01017G23KT 15/04 A3012 RMK A01 T01530039  RH  046%=      5-min Rain = 0
KCR1 171656Z 01020KT 15/04 A3012 RMK A01 T01540037  RH  045%=      5-min Rain = 0
KCR1 171657Z 02018KT 15/04 A3012 RMK A01 T01530037  RH  046%=      5-min Rain = 0
KCR1 171658Z 01016KT 16/04 A3012 RMK A01 T01550038  RH  046%=      5-min Rain = 0
KCR1 171659Z 01020KT 16/04 A3012 RMK A01 T01550037  RH  045%=      5-min Rain = 0
KCR1 171700Z 01021KT 16/04 A3012 RMK A01 T01550036  RH  045%=      5-min Rain = 0
KCR1 171701Z 01019KT 15/04 A3012 RMK A01 T01530035  RH  045%=      5-min Rain = 0
KCR1 171702Z 02017KT 15/04 A3012 RMK A01 T01530036  RH  046%=      5-min Rain = 0
KCR1 171703Z 02016KT 15/04 A3011 RMK A01 T01540037  RH  045%=      5-min Rain = 0
KCR1 171704Z 03018KT 15/04 A3011 RMK A01 T01540036  RH  045%=      5-min Rain = 0
KCR1 171705Z 01019KT 16/04 A3011 RMK A01 T01560038  RH  045%=      5-min Rain = 0
KCR1 171706Z 01019KT 16/04 A3012 RMK A01 T01570037  RH  045%=      5-min Rain = 0
KCR1 171707Z 02018KT 16/04 A3011 RMK A01 T01570037  RH  045%=      5-min Rain = 0
KCR1 171708Z 02017G22KT 16/04 A3011 RMK A01 T01570037  RH  044%=      5-min Rain = 0
KCR1 171709Z 03015KT 16/04 A3011 RMK A01 T01580037  RH  045%=      5-min Rain = 0
KCR1 171710Z 02019KT 16/04 A3011 RMK A01 T01590038  RH  044%=      5-min Rain = 0
KCR1 171711Z 01016KT 16/04 A3012 RMK A01 T01580036  RH  044%=      5-min Rain = 0
KCR1 171712Z 02016KT 16/04 A3012 RMK A01 T01560036  RH  045%=      5-min Rain = 0
KCR1 171713Z 02018KT 16/04 A3011 RMK A01 T01560036  RH  045%=      5-min Rain = 0
KCR1 171714Z 02017KT 16/04 A3012 RMK A01 T01550036  RH  045%=      5-min Rain = 0
KCR1 171715Z 01015KT 16/04 A3012 RMK A01 T01560038  RH  045%=      5-min Rain = 0
KCR1 171716Z 01020KT 16/04 A3012 RMK A01 T01580037  RH  044%=      5-min Rain = 0
KCR1 171717Z 01020KT 16/04 A3012 RMK A01 T01570035  RH  044%=      5-min Rain = 0
KCR1 171718Z 02018KT 16/04 A3012 RMK A01 T01560035  RH  045%=      5-min Rain = 0
KCR1 171719Z 01018KT 16/04 A3012 RMK A01 T01560036  RH  045%=      5-min Rain = 0
KCR1 171720Z 02017KT 16/04 A3011 RMK A01 T01570036  RH  045%=      5-min Rain = 0
KCR1 171721Z 01017KT 16/04 A3011 RMK A01 T01570036  RH  044%=      5-min Rain = 0
KCR1 171722Z 02017KT 16/04 A3011 RMK A01 T01570036  RH  044%=      5-min Rain = 0
KCR1 171723Z 01016KT 16/04 A3011 RMK A01 T01580038  RH  045%=      5-min Rain = 0
KCR1 171724Z 01016KT 16/04 A3011 RMK A01 T01610038  RH  044%=      5-min Rain = 0
KCR1 171725Z 02015KT 16/04 A3011 RMK A01 T01620037  RH  043%=      5-min Rain = 0
KCR1 171726Z 02015KT 16/04 A3011 RMK A01 T01610037  RH  044%=      5-min Rain = 0
KCR1 171727Z 01016KT 16/04 A3011 RMK A01 T01610037  RH  044%=      5-min Rain = 0
KCR1 171728Z 01015KT 16/04 A3011 RMK A01 T01600038  RH  044%=      5-min Rain = 0
KCR1 171729Z 01017KT 16/04 A3011 RMK A01 T01610037  RH  043%=      5-min Rain = 0
KCR1 171730Z 01018KT 16/04 A3011 RMK A01 T01610036  RH  043%=      5-min Rain = 0
KCR1 171731Z 01019KT 16/04 A3011 RMK A01 T01600035  RH  043%=      5-min Rain = 0
KCR1 171732Z 00020KT 16/04 A3011 RMK A01 T01590035  RH  044%=      5-min Rain = 0
KCR1 171733Z 01019KT 16/04 A3011 RMK A01 T01590035  RH  043%=      5-min Rain = 0
KCR1 171734Z 01018KT 16/04 A3011 RMK A01 T01590036  RH  044%=      5-min Rain = 0
KCR1 171735Z 02017KT 16/04 A3011 RMK A01 T01600036  RH  043%=      5-min Rain = 0
KCR1 171736Z 01016KT 16/04 A3011 RMK A01 T01600037  RH  044%=      5-min Rain = 0
KCR1 171737Z 01014KT 16/04 A3011 RMK A01 T01610036  RH  043%=      5-min Rain = 0
KCR1 171738Z 02015KT 16/04 A3011 RMK A01 T01610036  RH  043%=      5-min Rain = 0
KCR1 171739Z 02016G23KT 16/04 A3011 RMK A01 T01600036  RH  044%=      5-min Rain = 0
KCR1 171740Z 01017KT 16/04 A3011 RMK A01 T01620037  RH  043%=      5-min Rain = 0
KCR1 171741Z 02017KT 16/04 A3011 RMK A01 T01640036  RH  043%=      5-min Rain = 0
KCR1 171742Z 02017G22KT 16/04 A3011 RMK A01 T01620036  RH  043%=      5-min Rain = 0
KCR1 171743Z 02017KT 16/04 A3011 RMK A01 T01620036  RH  043%=      5-min Rain = 0
KCR1 171744Z 03017KT 16/04 A3011 RMK A01 T01620036  RH  043%=      5-min Rain = 0
KCR1 171745Z 02015KT 16/04 A3011 RMK A01 T01620036  RH  043%=      5-min Rain = 0
KCR1 171746Z 02017KT 16/04 A301 RMK A01 T01630037  RH  043%=      5-min Rain = 0
KCR1 171747Z 02016KT 16/04 A301 RMK A01 T01630036  RH  043%=      5-min Rain = 0
KCR1 171748Z 01016KT 16/04 A301 RMK A01 T01630036  RH  043%=      5-min Rain = 0
KCR1 171749Z 00017KT 16/04 A301 RMK A01 T01620036  RH  043%=      5-min Rain = 0
KCR1 171750Z 00017KT 16/04 A301 RMK A01 T01620036  RH  043%=      5-min Rain = 0
KCR1 171751Z 01016KT 16/04 A301 RMK A01 T01640037  RH  043%=      5-min Rain = 0
KCR1 171752Z 00014KT 17/04 A301 RMK A01 T01650037  RH  042%=      5-min Rain = 0
KCR1 171753Z 02014KT 17/04 A301 RMK A01 T01650038  RH  043%=      5-min Rain = 0
KCR1 171754Z 02016KT 17/04 A301 RMK A01 T01680039  RH  042%=      5-min Rain = 0
KCR1 171755Z 01016KT 17/04 A301 RMK A01 T01690039  RH  042%=      5-min Rain = 0
KCR1 171756Z 01019KT 17/04 A301 RMK A01 T01700038  RH  041%=      5-min Rain = 0
KCR1 171757Z 01017KT 17/04 A301 RMK A01 T01670036  RH  042%=      5-min Rain = 0
KCR1 171758Z 01019KT 17/04 A301 RMK A01 T01660037  RH  042%=      5-min Rain = 0
KCR1 171759Z 01018KT 17/04 A301 RMK A01 T01650036  RH  042%=      5-min Rain = 0
KCR1 171800Z 01018KT 16/04 A301 RMK A01 T01640036  RH  042%=      5-min Rain = 0
KCR1 171801Z 01019KT 16/04 A301 RMK A01 T01640036  RH  042%=      5-min Rain = 0
KCR1 171802Z 02018KT 17/04 A301 RMK A01 T01650036  RH  042%=      5-min Rain = 0
KCR1 171803Z 02018KT 17/04 A301 RMK A01 T01650036  RH  042%=      5-min Rain = 0
KCR1 171804Z 01019KT 17/04 A301 RMK A01 T01650037  RH  042%=      5-min Rain = 0
KCR1 171805Z 02018KT 17/04 A301 RMK A01 T01670037  RH  042%=      5-min Rain = 0
KCR1 171806Z 02018G23KT 17/04 A301 RMK A01 T01660037  RH  042%=      5-min Rain = 0
KCR1 171807Z 02019KT 17/04 A301 RMK A01 T01670036  RH  042%=      5-min Rain = 0
KCR1 171808Z 02015KT 17/04 A301 RMK A01 T01650036  RH  042%=      5-min Rain = 0
KCR1 171809Z 02017KT 17/04 A301 RMK A01 T01670038  RH  042%=      5-min Rain = 0
KCR1 171810Z 02018KT 17/04 A301 RMK A01 T01680038  RH  042%=      5-min Rain = 0
KCR1 171811Z 01019KT 17/04 A301 RMK A01 T01700038  RH  041%=      5-min Rain = 0
KCR1 171812Z 01020KT 17/04 A301 RMK A01 T01700037  RH  041%=      5-min Rain = 0
KCR1 171813Z 02016KT 17/04 A301 RMK A01 T01700038  RH  041%=      5-min Rain = 0
KCR1 171814Z 01017KT 17/04 A301 RMK A01 T01700037  RH  041%=      5-min Rain = 0
KCR1 171815Z 02017G22KT 17/04 A301 RMK A01 T01690037  RH  041%=      5-min Rain = 0
KCR1 171816Z 01019KT 17/04 A301 RMK A01 T01720039  RH  041%=      5-min Rain = 0
KCR1 171817Z 02018KT 17/04 A301 RMK A01 T01720038  RH  041%=      5-min Rain = 0
KCR1 171818Z 01018KT 17/04 A301 RMK A01 T01730038  RH  041%=      5-min Rain = 0
KCR1 171819Z 01019KT 17/04 A301 RMK A01 T01710036  RH  041%=      5-min Rain = 0
KCR1 171820Z 02019KT 17/04 A301 RMK A01 T01710036  RH  041%=      5-min Rain = 0
KCR1 171821Z 02019KT 17/04 A301 RMK A01 T01710038  RH  041%=      5-min Rain = 0
KCR1 171822Z 02020KT 17/04 A301 RMK A01 T01730038  RH  041%=      5-min Rain = 0
KCR1 171823Z 02018KT 17/04 A301 RMK A01 T01720037  RH  041%=      5-min Rain = 0
KCR1 171824Z 36017KT 17/04 A301 RMK A01 T01720037  RH  041%=      5-min Rain = 0
KCR1 171825Z 00017KT 17/04 A301 RMK A01 T01720038  RH  041%=      5-min Rain = 0
KCR1 171826Z 01015KT 17/04 A301 RMK A01 T01720038  RH  041%=      5-min Rain = 0
KCR1 171827Z 00014G21KT 17/04 A301 RMK A01 T01740040  RH  041%=      5-min Rain = 0
KCR1 171828Z 00022KT 18/04 A301 RMK A01 T01760039  RH  040%=      5-min Rain = 0
KCR1 171829Z 02021KT 18/04 A301 RMK A01 T01750038  RH  040%=      5-min Rain = 0
KCR1 171830Z 00019KT 17/04 A301 RMK A01 T01730037  RH  040%=      5-min Rain = 0
KCR1 171831Z 01021KT 17/04 A3009 RMK A01 T01740038  RH  040%=      5-min Rain = 0
KCR1 171832Z 01018KT 17/04 A3009 RMK A01 T01740037  RH  040%=      5-min Rain = 0
KCR1 171833Z 01021KT 18/04 A3009 RMK A01 T01760039  RH  040%=      5-min Rain = 0
KCR1 171834Z 01021KT 18/04 A3009 RMK A01 T01760038  RH  040%=      5-min Rain = 0
KCR1 171835Z 02020KT 17/04 A3009 RMK A01 T01730037  RH  040%=      5-min Rain = 0
KCR1 171836Z 01017KT 17/04 A3009 RMK A01 T01720038  RH  041%=      5-min Rain = 0
KCR1 171837Z 01020KT 17/04 A3009 RMK A01 T01730038  RH  041%=      5-min Rain = 0
KCR1 171838Z 01022KT 18/04 A3009 RMK A01 T01750038  RH  040%=      5-min Rain = 0
KCR1 171839Z 02021KT 18/04 A3009 RMK A01 T01750039  RH  040%=      5-min Rain = 0
KCR1 171840Z 01019G24KT 18/04 A3009 RMK A01 T01750038  RH  040%=      5-min Rain = 0
KCR1 171841Z 02021KT 17/04 A3009 RMK A01 T01740038  RH  040%=      5-min Rain = 0
KCR1 171842Z 01023KT 17/04 A3009 RMK A01 T01730039  RH  041%=      5-min Rain = 0
KCR1 171843Z 01021KT 17/04 A301 RMK A01 T01730038  RH  041%=      5-min Rain = 0
KCR1 171844Z 00019G24KT 17/04 A3009 RMK A01 T01720037  RH  041%=      5-min Rain = 0
KCR1 171845Z 02018KT 17/04 A3009 RMK A01 T01710039  RH  041%=      5-min Rain = 0
KCR1 171846Z 02018G23KT 17/04 A3009 RMK A01 T01730038  RH  041%=      5-min Rain = 0
KCR1 171847Z 01021KT 17/04 A3009 RMK A01 T01740039  RH  041%=      5-min Rain = 0
KCR1 171848Z 00021KT 18/04 A3009 RMK A01 T01750039  RH  040%=      5-min Rain = 0
KCR1 171849Z 02020KT 18/04 A3009 RMK A01 T01750039  RH  040%=      5-min Rain = 0
KCR1 171850Z 02017KT 17/04 A3009 RMK A01 T01740038  RH  040%=      5-min Rain = 0
KCR1 171851Z 02021KT 18/04 A3009 RMK A01 T01750039  RH  041%=      5-min Rain = 0
KCR1 171852Z 02019KT 18/04 A3009 RMK A01 T01750038  RH  040%=      5-min Rain = 0
KCR1 171853Z 02020KT 17/04 A3009 RMK A01 T01740039  RH  040%=      5-min Rain = 0
KCR1 171854Z 01018KT 18/04 A3009 RMK A01 T01750038  RH  040%=      5-min Rain = 0
KCR1 171855Z 01017KT 18/04 A3009 RMK A01 T01750038  RH  040%=      5-min Rain = 0
KCR1 171856Z 01017KT 18/04 A3009 RMK A01 T01750038  RH  040%=      5-min Rain = 0
KCR1 171857Z 02020KT 18/04 A3009 RMK A01 T01770040  RH  040%=      5-min Rain = 0
KCR1 171858Z 01019KT 18/04 A3009 RMK A01 T01780040  RH  040%=      5-min Rain = 0
KCR1 171859Z 01016KT 18/04 A3009 RMK A01 T01780039  RH  040%=      5-min Rain = 0
KCR1 171900Z 01017KT 18/04 A3009 RMK A01 T01780039  RH  040%=      5-min Rain = 0
KCR1 171901Z 00018KT 18/04 A3009 RMK A01 T01780039  RH  040%=      5-min Rain = 0
KCR1 171902Z 02018KT 18/04 A3009 RMK A01 T01770038  RH  040%=      5-min Rain = 0
KCR1 171903Z 01017KT 18/04 A3009 RMK A01 T01770039  RH  040%=      5-min Rain = 0
KCR1 171904Z 01019KT 18/04 A3009 RMK A01 T01790040  RH  040%=      5-min Rain = 0
KCR1 171905Z 36019G24KT 18/04 A3009 RMK A01 T01790039  RH  039%=      5-min Rain = 0
KCR1 171906Z 00020KT 18/04 A3009 RMK A01 T01780038  RH  039%=      5-min Rain = 0
KCR1 171907Z 36020KT 18/04 A3009 RMK A01 T01760037  RH  040%=      5-min Rain = 0
KCR1 171908Z 36018KT 17/04 A3009 RMK A01 T01740036  RH  040%=      5-min Rain = 0
KCR1 171909Z 36016KT 17/04 A3009 RMK A01 T01740037  RH  040%=      5-min Rain = 0
KCR1 171910Z 00018KT 18/04 A3009 RMK A01 T01760038  RH  040%=      5-min Rain = 0
KCR1 171911Z 36017KT 18/04 A3009 RMK A01 T01770038  RH  039%=      5-min Rain = 0
KCR1 171912Z 00020KT 18/04 A3009 RMK A01 T01770038  RH  039%=      5-min Rain = 0
KCR1 171913Z 00018KT 18/04 A3009 RMK A01 T01780038  RH  039%=      5-min Rain = 0
KCR1 171914Z 00017KT 18/04 A3009 RMK A01 T01780037  RH  039%=      5-min Rain = 0
KCR1 171915Z 01016G21KT 18/04 A3008 RMK A01 T01780038  RH  039%=      5-min Rain = 0
KCR1 171916Z 01019KT 18/04 A3009 RMK A01 T01780037  RH  039%=      5-min Rain = 0
KCR1 171917Z 01019KT 18/04 A3009 RMK A01 T01790037  RH  039%=      5-min Rain = 0
KCR1 171918Z 01021KT 18/04 A3008 RMK A01 T01790037  RH  039%=      5-min Rain = 0
KCR1 171919Z 01018KT 18/04 A3008 RMK A01 T01780036  RH  039%=      5-min Rain = 0
KCR1 171920Z 35017KT 18/04 A3009 RMK A01 T01770036  RH  039%=      5-min Rain = 0
KCR1 171921Z 00016KT 18/04 A3009 RMK A01 T01770036  RH  039%=      5-min Rain = 0
KCR1 171922Z 01015G20KT 18/04 A3009 RMK A01 T01780037  RH  039%=      5-min Rain = 0
KCR1 171923Z 02019KT 18/04 A3009 RMK A01 T01800037  RH  039%=      5-min Rain = 0
KCR1 171924Z 02018KT 18/04 A3008 RMK A01 T01800037  RH  039%=      5-min Rain = 0
KCR1 171925Z 01018KT 18/04 A3008 RMK A01 T01790036  RH  039%=      5-min Rain = 0
KCR1 171926Z 00017KT 18/04 A3008 RMK A01 T01790037  RH  039%=      5-min Rain = 0
KCR1 171927Z 01014KT 18/04 A3008 RMK A01 T01800038  RH  039%=      5-min Rain = 0
KCR1 171928Z 01013KT 18/04 A3008 RMK A01 T01820038  RH  038%=      5-min Rain = 0
KCR1 171929Z 02014KT 18/04 A3008 RMK A01 T01820038  RH  038%=      5-min Rain = 0
KCR1 171930Z 02017KT 18/04 A3008 RMK A01 T01820038  RH  038%=      5-min Rain = 0
KCR1 171931Z 02017KT 18/04 A3008 RMK A01 T01820037  RH  038%=      5-min Rain = 0
KCR1 171932Z 03017KT 18/04 A3008 RMK A01 T01810037  RH  038%=      5-min Rain = 0
KCR1 171933Z 02019KT 18/04 A3008 RMK A01 T01810037  RH  038%=      5-min Rain = 0
KCR1 171934Z 02017KT 18/04 A3008 RMK A01 T01810036  RH  038%=      5-min Rain = 0
KCR1 171935Z 02015KT 18/04 A3008 RMK A01 T01800036  RH  038%=      5-min Rain = 0
KCR1 171936Z 02016KT 18/04 A3008 RMK A01 T01800037  RH  038%=      5-min Rain = 0
KCR1 171937Z 00014KT 18/04 A3008 RMK A01 T01810038  RH  039%=      5-min Rain = 0
KCR1 171938Z 36015KT 18/04 A3008 RMK A01 T01810036  RH  038%=      5-min Rain = 0
KCR1 171939Z 36013KT 18/04 A3008 RMK A01 T01810037  RH  038%=      5-min Rain = 0
KCR1 171940Z 00015KT 18/04 A3008 RMK A01 T01800036  RH  038%=      5-min Rain = 0
KCR1 171941Z 01013KT 18/04 A3008 RMK A01 T01790036  RH  039%=      5-min Rain = 0
KCR1 171942Z 01011G17KT 18/04 A3008 RMK A01 T01780037  RH  039%=      5-min Rain = 0
KCR1 171943Z 00015KT 18/04 A3007 RMK A01 T01820038  RH  039%=      5-min Rain = 0
KCR1 171944Z 00016KT 18/04 A3008 RMK A01 T01830037  RH  038%=      5-min Rain = 0
KCR1 171945Z 01017KT 18/04 A3008 RMK A01 T01820036  RH  038%=      5-min Rain = 0
KCR1 171946Z 36015KT 18/04 A3007 RMK A01 T01800035  RH  038%=      5-min Rain = 0
KCR1 171947Z 35015KT 18/04 A3007 RMK A01 T01800036  RH  038%=      5-min Rain = 0
KCR1 171948Z 35015KT 18/04 A3007 RMK A01 T01800037  RH  039%=      5-min Rain = 0
KCR1 171949Z 00016KT 18/04 A3007 RMK A01 T01800036  RH  038%=      5-min Rain = 0
KCR1 171950Z 02017KT 18/04 A3007 RMK A01 T01810036  RH  038%=      5-min Rain = 0
KCR1 171951Z 02013KT 18/04 A3007 RMK A01 T01810036  RH  038%=      5-min Rain = 0
KCR1 171952Z 02012KT 18/04 A3007 RMK A01 T01800036  RH  038%=      5-min Rain = 0
KCR1 171953Z 03010KT 18/04 A3007 RMK A01 T01800037  RH  039%=      5-min Rain = 0
KCR1 171954Z 03012KT 18/04 A3007 RMK A01 T01810038  RH  039%=      5-min Rain = 0
KCR1 171955Z 03014G19KT 18/04 A3006 RMK A01 T01830037  RH  038%=      5-min Rain = 0
KCR1 171956Z 02015KT 18/04 A3006 RMK A01 T01840038  RH  038%=      5-min Rain = 0
KCR1 171957Z 03016KT 19/04 A3006 RMK A01 T01850037  RH  037%=      5-min Rain = 0
KCR1 171958Z 02014KT 18/04 A3006 RMK A01 T01840037  RH  038%=      5-min Rain = 0
KCR1 171959Z 02009KT 18/04 A3006 RMK A01 T01830037  RH  038%=      5-min Rain = 0
KCR1 172000Z 03010KT 18/04 A3006 RMK A01 T01830037  RH  038%=      5-min Rain = 0
KCR1 172001Z 03007KT 18/04 A3006 RMK A01 T01820035  RH  038%=      5-min Rain = 0
KCR1 172002Z 01012KT 18/04 A3006 RMK A01 T01810037  RH  038%=      5-min Rain = 0
KCR1 172003Z 00014KT 18/04 A3006 RMK A01 T01820035  RH  038%=      5-min Rain = 0
KCR1 172004Z 36016KT 18/03 A3006 RMK A01 T01830034  RH  037%=      5-min Rain = 0
KCR1 172005Z 36016KT 18/03 A3006 RMK A01 T01830034  RH  037%=      5-min Rain = 0
KCR1 172006Z 01015KT 18/03 A3006 RMK A01 T01830034  RH  037%=      5-min Rain = 0
KCR1 172007Z 02014KT 18/04 A3006 RMK A01 T01830035  RH  037%=      5-min Rain = 0
KCR1 172008Z 01013KT 18/03 A3006 RMK A01 T01820034  RH  037%=      5-min Rain = 0
KCR1 172009Z 02012KT 18/03 A3006 RMK A01 T01820034  RH  038%=      5-min Rain = 0
KCR1 172010Z 03009KT 18/04 A3005 RMK A01 T01810035  RH  038%=      5-min Rain = 0
KCR1 172011Z 02012KT 18/04 A3005 RMK A01 T01840037  RH  038%=      5-min Rain = 0
KCR1 172012Z 02011KT 18/04 A3006 RMK A01 T01840036  RH  037%=      5-min Rain = 0
KCR1 172013Z 02011KT 18/04 A3006 RMK A01 T01840036  RH  037%=      5-min Rain = 0
KCR1 172014Z 02014KT 19/04 A3005 RMK A01 T01850037  RH  037%=      5-min Rain = 0
KCR1 172015Z 02015KT 19/04 A3006 RMK A01 T01870036  RH  037%=      5-min Rain = 0
KCR1 172016Z 01011KT 19/04 A3006 RMK A01 T01860035  RH  037%=      5-min Rain = 0
KCR1 172017Z 02012KT 19/04 A3006 RMK A01 T01850035  RH  037%=      5-min Rain = 0
KCR1 172018Z 03013KT 19/04 A3005 RMK A01 T01850035  RH  037%=      5-min Rain = 0
KCR1 172019Z 03014KT 19/04 A3005 RMK A01 T01860035  RH  037%=      5-min Rain = 0
KCR1 172020Z 03013KT 19/04 A3006 RMK A01 T01860035  RH  037%=      5-min Rain = 0
KCR1 172021Z 03015KT 19/04 A3006 RMK A01 T01850035  RH  037%=      5-min Rain = 0
KCR1 172022Z 03011KT 18/04 A3006 RMK A01 T01840035  RH  037%=      5-min Rain = 0
KCR1 172023Z 04013KT 18/04 A3005 RMK A01 T01840035  RH  037%=      5-min Rain = 0
KCR1 172024Z 01012G17KT 19/04 A3005 RMK A01 T01850036  RH  037%=      5-min Rain = 0
KCR1 172025Z 00011KT 19/04 A3005 RMK A01 T01860035  RH  037%=      5-min Rain = 0
KCR1 172026Z 35009KT 19/04 A3005 RMK A01 T01860036  RH  037%=      5-min Rain = 0
KCR1 172027Z 00011KT 19/04 A3005 RMK A01 T01850035  RH  037%=      5-min Rain = 0
KCR1 172028Z 01012KT 19/04 A3005 RMK A01 T01850036  RH  037%=      5-min Rain = 0
KCR1 172029Z 01011KT 19/04 A3005 RMK A01 T01870035  RH  037%=      5-min Rain = 0
KCR1 172030Z 03010KT 19/04 A3005 RMK A01 T01870035  RH  037%=      5-min Rain = 0
KCR1 172031Z 03014KT 19/04 A3005 RMK A01 T01860035  RH  036%=      5-min Rain = 0
KCR1 172032Z 03013KT 19/03 A3005 RMK A01 T01860034  RH  036%=      5-min Rain = 0
KCR1 172033Z 02014KT 18/03 A3005 RMK A01 T01840034  RH  037%=      5-min Rain = 0
KCR1 172034Z 02010KT 19/04 A3005 RMK A01 T01860035  RH  037%=      5-min Rain = 0
KCR1 172035Z 02012KT 19/04 A3005 RMK A01 T01870036  RH  037%=      5-min Rain = 0
KCR1 172036Z 03012KT 19/04 A3005 RMK A01 T01870035  RH  036%=      5-min Rain = 0
KCR1 172037Z 03013KT 19/04 A3005 RMK A01 T01870036  RH  037%=      5-min Rain = 0
KCR1 172038Z 04014KT 19/04 A3005 RMK A01 T01870035  RH  037%=      5-min Rain = 0
KCR1 172039Z 03013KT 19/04 A3005 RMK A01 T01870035  RH  036%=      5-min Rain = 0
KCR1 172040Z 03012KT 19/04 A3005 RMK A01 T01870035  RH  036%=      5-min Rain = 0
KCR1 172041Z 04011KT 19/04 A3005 RMK A01 T01870035  RH  037%=      5-min Rain = 0
KCR1 172042Z 04010KT 19/03 A3005 RMK A01 T01860034  RH  036%=      5-min Rain = 0
KCR1 172043Z 05009KT 19/04 A3005 RMK A01 T01850035  RH  037%=      5-min Rain = 0
KCR1 172044Z 04010KT 19/03 A3005 RMK A01 T01860034  RH  037%=      5-min Rain = 0
KCR1 172045Z 02010KT 19/03 A3005 RMK A01 T01860034  RH  036%=      5-min Rain = 0
KCR1 172046Z 00011KT 19/03 A3005 RMK A01 T01860034  RH  036%=      5-min Rain = 0
KCR1 172047Z 00014KT 19/03 A3005 RMK A01 T01870033  RH  036%=      5-min Rain = 0
KCR1 172048Z 01013KT 19/03 A3005 RMK A01 T01870032  RH  036%=      5-min Rain = 0
KCR1 172049Z 01013KT 19/03 A3005 RMK A01 T01870033  RH  036%=      5-min Rain = 0
KCR1 172050Z 02014KT 19/03 A3005 RMK A01 T01870034  RH  036%=      5-min Rain = 0
KCR1 172051Z 02011KT 19/03 A3005 RMK A01 T01870033  RH  036%=      5-min Rain = 0
KCR1 172052Z 01011KT 19/03 A3005 RMK A01 T01860032  RH  036%=      5-min Rain = 0
KCR1 172053Z 01013KT 19/03 A3005 RMK A01 T01850033  RH  036%=      5-min Rain = 0
KCR1 172054Z 01011KT 19/03 A3005 RMK A01 T01850033  RH  036%=      5-min Rain = 0
KCR1 172055Z 00009KT 19/03 A3005 RMK A01 T01850033  RH  036%=      5-min Rain = 0
KCR1 172056Z 01009KT 19/04 A3005 RMK A01 T01850035  RH  037%=      5-min Rain = 0
KCR1 172057Z 00014KT 19/03 A3005 RMK A01 T01870034  RH  036%=      5-min Rain = 0
KCR1 172058Z 02014KT 19/03 A3005 RMK A01 T01880030  RH  035%=      5-min Rain = 0
KCR1 172059Z 02014KT 19/03 A3005 RMK A01 T01870032  RH  036%=      5-min Rain = 0
KCR1 172100Z 01011KT 19/03 A3005 RMK A01 T01870032  RH  036%=      5-min Rain = 0
KCR1 172101Z 01012KT 19/03 A3005 RMK A01 T01870030  RH  035%=      5-min Rain = 0
KCR1 172102Z 00011KT 19/03 A3005 RMK A01 T01860029  RH  035%=      5-min Rain = 0
KCR1 172103Z 00012KT 19/03 A3005 RMK A01 T01870031  RH  035%=      5-min Rain = 0
KCR1 172104Z 01012KT 19/03 A3005 RMK A01 T01880031  RH  035%=      5-min Rain = 0
KCR1 172105Z 02009KT 19/03 A3005 RMK A01 T01880030  RH  035%=      5-min Rain = 0
KCR1 172106Z 01008KT 19/03 A3005 RMK A01 T01860031  RH  035%=      5-min Rain = 0
KCR1 172107Z 02012KT 19/03 A3005 RMK A01 T01880032  RH  036%=      5-min Rain = 0
KCR1 172108Z 02011KT 19/03 A3005 RMK A01 T01880031  RH  035%=      5-min Rain = 0
KCR1 172109Z 02010KT 19/03 A3005 RMK A01 T01870031  RH  035%=      5-min Rain = 0
KCR1 172110Z 02010KT 19/03 A3005 RMK A01 T01870031  RH  036%=      5-min Rain = 0
KCR1 172111Z 02009KT 19/03 A3005 RMK A01 T01870032  RH  036%=      5-min Rain = 0
KCR1 172112Z 02012KT 19/03 A3005 RMK A01 T01880032  RH  035%=      5-min Rain = 0
KCR1 172113Z 01013KT 19/03 A3005 RMK A01 T01890031  RH  035%=      5-min Rain = 0
KCR1 172114Z 01014KT 19/03 A3005 RMK A01 T01890030  RH  035%=      5-min Rain = 0
KCR1 172115Z 01013KT 19/03 A3005 RMK A01 T01880029  RH  035%=      5-min Rain = 0
KCR1 172116Z 01013KT 19/03 A3005 RMK A01 T01870028  RH  035%=      5-min Rain = 0
KCR1 172117Z 01011KT 19/03 A3005 RMK A01 T01860029  RH  035%=      5-min Rain = 0
KCR1 172118Z 01009KT 19/03 A3005 RMK A01 T01870031  RH  035%=      5-min Rain = 0
KCR1 172119Z 02010KT 19/03 A3005 RMK A01 T01890032  RH  035%=      5-min Rain = 0
KCR1 172120Z 01008KT 19/03 A3005 RMK A01 T01900032  RH  035%=      5-min Rain = 0
KCR1 172121Z 00008KT 19/03 A3005 RMK A01 T01910031  RH  034%=      5-min Rain = 0
KCR1 172122Z 01013KT 19/03 A3005 RMK A01 T01910030  RH  034%=      5-min Rain = 0
KCR1 172123Z 01013KT 19/03 A3005 RMK A01 T01900029  RH  034%=      5-min Rain = 0
KCR1 172124Z 01013KT 19/03 A3005 RMK A01 T01880027  RH  034%=      5-min Rain = 0
KCR1 172125Z 02012KT 19/03 A3005 RMK A01 T01870027  RH  034%=      5-min Rain = 0
KCR1 172126Z 02011KT 19/03 A3005 RMK A01 T01870028  RH  035%=      5-min Rain = 0
KCR1 172127Z 02012KT 19/03 A3005 RMK A01 T01880029  RH  035%=      5-min Rain = 0
KCR1 172128Z 02009KT 19/03 A3005 RMK A01 T01880030  RH  035%=      5-min Rain = 0
KCR1 172129Z 02008KT 19/03 A3004 RMK A01 T01880029  RH  035%=      5-min Rain = 0
KCR1 172130Z 00008KT 19/03 A3004 RMK A01 T01870029  RH  035%=      5-min Rain = 0
KCR1 172131Z 00010KT 19/03 A3004 RMK A01 T01870028  RH  035%=      5-min Rain = 0
KCR1 172132Z 35014KT 19/03 A3004 RMK A01 T01870027  RH  034%=      5-min Rain = 0
KCR1 172133Z 35012KT 19/03 A3004 RMK A01 T01870027  RH  034%=      5-min Rain = 0
KCR1 172134Z 36010KT 19/03 A3004 RMK A01 T01860028  RH  035%=      5-min Rain = 0
KCR1 172135Z 01010KT 19/03 A3004 RMK A01 T01870028  RH  035%=      5-min Rain = 0
KCR1 172136Z 00010G15KT 19/03 A3004 RMK A01 T01880027  RH  034%=      5-min Rain = 0
KCR1 172137Z 02014KT 19/03 A3004 RMK A01 T01870027  RH  034%=      5-min Rain = 0
KCR1 172138Z 02015KT 19/03 A3004 RMK A01 T01880025  RH  034%=      5-min Rain = 0
KCR1 172139Z 02014KT 19/02 A3004 RMK A01 T01870023  RH  033%=      5-min Rain = 0
KCR1 172140Z 03015KT 19/02 A3004 RMK A01 T01860023  RH  034%=      5-min Rain = 0
KCR1 172141Z 03014KT 19/02 A3004 RMK A01 T01860022  RH  034%=      5-min Rain = 0
KCR1 172142Z 02015KT 19/02 A3004 RMK A01 T01850022  RH  034%=      5-min Rain = 0
KCR1 172143Z 36013KT 18/02 A3005 RMK A01 T01840022  RH  034%=      5-min Rain = 0
KCR1 172144Z 00012KT 19/02 A3005 RMK A01 T01850022  RH  034%=      5-min Rain = 0
KCR1 172145Z 00013KT 19/02 A3005 RMK A01 T01860023  RH  034%=      5-min Rain = 0
KCR1 172146Z 01012KT 19/02 A3005 RMK A01 T01860022  RH  033%=      5-min Rain = 0
KCR1 172147Z 02010KT 19/02 A3005 RMK A01 T01850022  RH  033%=      5-min Rain = 0
KCR1 172148Z 01010KT 19/02 A3005 RMK A01 T01850021  RH  033%=      5-min Rain = 0
KCR1 172149Z 00010KT 18/02 A3005 RMK A01 T01840021  RH  034%=      5-min Rain = 0
KCR1 172150Z 01011KT 18/02 A3005 RMK A01 T01840022  RH  034%=      5-min Rain = 0
KCR1 172151Z 02012KT 19/02 A3005 RMK A01 T01850022  RH  034%=      5-min Rain = 0
KCR1 172152Z 02011KT 19/02 A3005 RMK A01 T01860022  RH  033%=      5-min Rain = 0
KCR1 172153Z 02012KT 19/02 A3005 RMK A01 T01860024  RH  034%=      5-min Rain = 0
KCR1 172154Z 02013KT 19/02 A3005 RMK A01 T01870023  RH  033%=      5-min Rain = 0
KCR1 172155Z 02012KT 19/02 A3005 RMK A01 T01870022  RH  033%=      5-min Rain = 0
KCR1 172156Z 01011KT 19/02 A3005 RMK A01 T01860023  RH  034%=      5-min Rain = 0
KCR1 172157Z 01010KT 19/02 A3005 RMK A01 T01860023  RH  034%=      5-min Rain = 0
KCR1 172158Z 01010KT 19/02 A3005 RMK A01 T01850023  RH  034%=      5-min Rain = 0
KCR1 172159Z 01013KT 19/02 A3005 RMK A01 T01850023  RH  034%=      5-min Rain = 0
KCR1 172200Z 01014KT 19/02 A3005 RMK A01 T01850023  RH  034%=      5-min Rain = 0
KCR1 172201Z 01013KT 19/02 A3005 RMK A01 T01850023  RH  034%=      5-min Rain = 0
KCR1 172202Z 01011KT 19/02 A3005 RMK A01 T01850023  RH  034%=      5-min Rain = 0
KCR1 172203Z 02012KT 18/02 A3005 RMK A01 T01840023  RH  034%=      5-min Rain = 0
KCR1 172204Z 02010KT 18/02 A3005 RMK A01 T01840023  RH  034%=      5-min Rain = 0
KCR1 172205Z 03011KT 18/02 A3004 RMK A01 T01840023  RH  034%=      5-min Rain = 0
KCR1 172206Z 02011KT 18/02 A3004 RMK A01 T01830023  RH  034%=      5-min Rain = 0
KCR1 172207Z 02012KT 18/02 A3004 RMK A01 T01840023  RH  034%=      5-min Rain = 0
KCR1 172208Z 01010KT 18/02 A3004 RMK A01 T01830022  RH  034%=      5-min Rain = 0
KCR1 172209Z 35011KT 18/02 A3004 RMK A01 T01840022  RH  034%=      5-min Rain = 0
KCR1 172210Z 35011KT 19/02 A3004 RMK A01 T01850021  RH  033%=      5-min Rain = 0
KCR1 172211Z 35010KT 18/02 A3004 RMK A01 T01840021  RH  034%=      5-min Rain = 0
KCR1 172212Z 35010KT 18/02 A3005 RMK A01 T01840020  RH  033%=      5-min Rain = 0
KCR1 172213Z 36011KT 18/02 A3005 RMK A01 T01840019  RH  033%=      5-min Rain = 0
KCR1 172214Z 01011KT 18/02 A3005 RMK A01 T01830020  RH  033%=      5-min Rain = 0
KCR1 172215Z 01011KT 18/02 A3005 RMK A01 T01820019  RH  034%=      5-min Rain = 0
KCR1 172216Z 01010KT 18/02 A3005 RMK A01 T01820019  RH  034%=      5-min Rain = 0
KCR1 172217Z 01010KT 18/02 A3005 RMK A01 T01820020  RH  034%=      5-min Rain = 0
KCR1 172218Z 01011KT 18/02 A3005 RMK A01 T01820020  RH  034%=      5-min Rain = 0
KCR1 172219Z 01010KT 18/02 A3005 RMK A01 T01820019  RH  034%=      5-min Rain = 0
KCR1 172220Z 36011KT 18/02 A3005 RMK A01 T01820019  RH  034%=      5-min Rain = 0
KCR1 172221Z 00012KT 18/02 A3005 RMK A01 T01820019  RH  034%=      5-min Rain = 0
KCR1 172222Z 36010KT 18/02 A3005 RMK A01 T01810018  RH  034%=      5-min Rain = 0
KCR1 172223Z 02009KT 18/02 A3005 RMK A01 T01800018  RH  034%=      5-min Rain = 0
KCR1 172224Z 01009KT 18/02 A3005 RMK A01 T01800020  RH  034%=      5-min Rain = 0
KCR1 172225Z 01009KT 18/02 A3005 RMK A01 T01800020  RH  034%=      5-min Rain = 0
KCR1 172226Z 02010KT 18/02 A3005 RMK A01 T01800019  RH  034%=      5-min Rain = 0
KCR1 172227Z 01009KT 18/02 A3005 RMK A01 T01800019  RH  034%=      5-min Rain = 0
KCR1 172228Z 36009KT 18/02 A3005 RMK A01 T01800019  RH  034%=      5-min Rain = 0
KCR1 172229Z 00011KT 18/02 A3005 RMK A01 T01800018  RH  034%=      5-min Rain = 0
KCR1 172230Z 01011KT 18/02 A3005 RMK A01 T01800017  RH  034%=      5-min Rain = 0
KCR1 172231Z 01009KT 18/02 A3005 RMK A01 T01790017  RH  034%=      5-min Rain = 0
KCR1 172232Z 01010KT 18/02 A3005 RMK A01 T01790018  RH  034%=      5-min Rain = 0
KCR1 172233Z 01011KT 18/02 A3005 RMK A01 T01790017  RH  034%=      5-min Rain = 0
KCR1 172234Z 00010KT 18/02 A3005 RMK A01 T01790017  RH  034%=      5-min Rain = 0
KCR1 172235Z 01009KT 18/02 A3005 RMK A01 T01780017  RH  034%=      5-min Rain = 0
KCR1 172236Z 01009KT 18/02 A3005 RMK A01 T01780017  RH  034%=      5-min Rain = 0
KCR1 172237Z 01009KT 18/02 A3005 RMK A01 T01780016  RH  034%=      5-min Rain = 0
KCR1 172238Z 01007KT 18/02 A3005 RMK A01 T01780017  RH  034%=      5-min Rain = 0
KCR1 172239Z 01007KT 18/02 A3005 RMK A01 T01770017  RH  034%=      5-min Rain = 0
KCR1 172240Z 02008KT 18/02 A3005 RMK A01 T01770018  RH  034%=      5-min Rain = 0
KCR1 172241Z 01007KT 18/02 A3005 RMK A01 T01770017  RH  034%=      5-min Rain = 0
KCR1 172242Z 01007KT 18/02 A3005 RMK A01 T01760017  RH  034%=      5-min Rain = 0
KCR1 172243Z 02008KT 18/02 A3005 RMK A01 T01760018  RH  035%=      5-min Rain = 0
KCR1 172244Z 02008KT 18/02 A3005 RMK A01 T01760017  RH  034%=      5-min Rain = 0
KCR1 172245Z 01007KT 18/02 A3005 RMK A01 T01760017  RH  034%=      5-min Rain = 0
KCR1 172246Z 02007KT 18/02 A3005 RMK A01 T01760018  RH  035%=      5-min Rain = 0
KCR1 172247Z 01006KT 18/02 A3005 RMK A01 T01750018  RH  035%=      5-min Rain = 0
KCR1 172248Z 01007KT 18/02 A3005 RMK A01 T01750018  RH  035%=      5-min Rain = 0
KCR1 172249Z 01008KT 18/02 A3005 RMK A01 T01750017  RH  035%=      5-min Rain = 0
KCR1 172250Z 01007KT 17/02 A3005 RMK A01 T01740016  RH  035%=      5-min Rain = 0
KCR1 172251Z 01007KT 17/02 A3005 RMK A01 T01740017  RH  035%=      5-min Rain = 0
KCR1 172252Z 01007KT 17/02 A3005 RMK A01 T01740018  RH  035%=      5-min Rain = 0
KCR1 172253Z 01006KT 17/02 A3005 RMK A01 T01730017  RH  035%=      5-min Rain = 0
KCR1 172254Z 01006KT 17/02 A3005 RMK A01 T01730018  RH  035%=      5-min Rain = 0
KCR1 172255Z 01007KT 17/02 A3005 RMK A01 T01720018  RH  035%=      5-min Rain = 0
KCR1 172256Z 01008KT 17/02 A3005 RMK A01 T01720017  RH  035%=      5-min Rain = 0
KCR1 172257Z 01007KT 17/02 A3005 RMK A01 T01720016  RH  035%=      5-min Rain = 0
KCR1 172258Z 01007KT 17/02 A3005 RMK A01 T01710016  RH  035%=      5-min Rain = 0
KCR1 172259Z 01007KT 17/02 A3005 RMK A01 T01710017  RH  035%=      5-min Rain = 0
KCR1 172300Z 01007KT 17/02 A3005 RMK A01 T01700017  RH  036%=      5-min Rain = 0
KCR1 172301Z 01007KT 17/02 A3005 RMK A01 T01700016  RH  036%=      5-min Rain = 0
KCR1 172302Z 01007KT 17/02 A3005 RMK A01 T01700017  RH  036%=      5-min Rain = 0
KCR1 172303Z 01007KT 17/02 A3005 RMK A01 T01690017  RH  036%=      5-min Rain = 0
KCR1 172304Z 01007KT 17/02 A3005 RMK A01 T01680017  RH  036%=      5-min Rain = 0
KCR1 172305Z 01007KT 17/02 A3005 RMK A01 T01670017  RH  036%=      5-min Rain = 0
KCR1 172306Z 01006KT 17/02 A3005 RMK A01 T01670017  RH  036%=      5-min Rain = 0
KCR1 172307Z 01006KT 17/02 A3005 RMK A01 T01660018  RH  037%=      5-min Rain = 0
KCR1 172308Z 01007KT 17/02 A3005 RMK A01 T01650017  RH  037%=      5-min Rain = 0
KCR1 172309Z 01007KT 17/02 A3005 RMK A01 T01650016  RH  037%=      5-min Rain = 0
KCR1 172310Z 01007KT 17/02 A3005 RMK A01 T01650016  RH  037%=      5-min Rain = 0
KCR1 172311Z 01006KT 16/02 A3005 RMK A01 T01640017  RH  037%=      5-min Rain = 0
KCR1 172312Z 01007KT 16/02 A3005 RMK A01 T01630016  RH  037%=      5-min Rain = 0
KCR1 172313Z 01006KT 16/02 A3005 RMK A01 T01620016  RH  037%=      5-min Rain = 0
KCR1 172314Z 01006KT 16/02 A3006 RMK A01 T01620016  RH  037%=      5-min Rain = 0
KCR1 172315Z 01006KT 16/02 A3006 RMK A01 T01610016  RH  037%=      5-min Rain = 0
KCR1 172316Z 01006KT 16/02 A3006 RMK A01 T01600016  RH  038%=      5-min Rain = 0
KCR1 172317Z 01006KT 16/02 A3006 RMK A01 T01600016  RH  038%=      5-min Rain = 0
KCR1 172318Z 01006KT 16/02 A3006 RMK A01 T01590016  RH  038%=      5-min Rain = 0
KCR1 172319Z 01006KT 16/02 A3006 RMK A01 T01580016  RH  038%=      5-min Rain = 0
KCR1 172320Z 01005KT 16/02 A3006 RMK A01 T01570016  RH  038%=      5-min Rain = 0
KCR1 172321Z 01005KT 16/02 A3006 RMK A01 T01560015  RH  039%=      5-min Rain = 0
KCR1 172322Z 01005KT 16/02 A3006 RMK A01 T01550015  RH  039%=      5-min Rain = 0
KCR1 172323Z 01005KT 16/02 A3006 RMK A01 T01550015  RH  039%=      5-min Rain = 0
KCR1 172324Z 01005KT 15/02 A3006 RMK A01 T01540015  RH  039%=      5-min Rain = 0
KCR1 172325Z 01005KT 15/02 A3006 RMK A01 T01530015  RH  039%=      5-min Rain = 0
KCR1 172326Z 01005KT 15/02 A3006 RMK A01 T01520015  RH  039%=      5-min Rain = 0
KCR1 172327Z 01005KT 15/01 A3006 RMK A01 T01520014  RH  039%=      5-min Rain = 0
KCR1 172328Z 01005KT 15/01 A3006 RMK A01 T01510014  RH  039%=      5-min Rain = 0
KCR1 172329Z 01005KT 15/02 A3006 RMK A01 T01500015  RH  040%=      5-min Rain = 0
KCR1 172330Z 01005KT 15/01 A3006 RMK A01 T01490014  RH  040%=      5-min Rain = 0
KCR1 172331Z 01005KT 15/01 A3006 RMK A01 T01480014  RH  040%=      5-min Rain = 0
KCR1 172332Z 01005KT 15/01 A3006 RMK A01 T01470014  RH  040%=      5-min Rain = 0
KCR1 172333Z 00005KT 15/01 A3006 RMK A01 T01460014  RH  041%=      5-min Rain = 0
KCR1 172334Z 00005KT 15/01 A3006 RMK A01 T01460014  RH  041%=      5-min Rain = 0
KCR1 172335Z 00005KT 15/01 A3006 RMK A01 T01450014  RH  041%=      5-min Rain = 0
KCR1 172336Z 00005KT 15/01 A3006 RMK A01 T01450013  RH  041%=      5-min Rain = 0
KCR1 172337Z 00005KT 14/01 A3007 RMK A01 T01440013  RH  041%=      5-min Rain = 0
KCR1 172338Z 00005KT 14/01 A3007 RMK A01 T01440013  RH  041%=      5-min Rain = 0
KCR1 172339Z 01005KT 14/01 A3007 RMK A01 T01430013  RH  041%=      5-min Rain = 0
KCR1 172340Z 01005KT 14/01 A3007 RMK A01 T01420012  RH  041%=      5-min Rain = 0
KCR1 172341Z 01004KT 14/01 A3007 RMK A01 T01410012  RH  041%=      5-min Rain = 0
KCR1 172342Z 01004KT 14/01 A3007 RMK A01 T01400012  RH  042%=      5-min Rain = 0
KCR1 172343Z 02004KT 14/01 A3007 RMK A01 T01400012  RH  042%=      5-min Rain = 0
KCR1 172344Z 01004KT 14/01 A3007 RMK A01 T01390012  RH  042%=      5-min Rain = 0
KCR1 172345Z 01004KT 14/01 A3007 RMK A01 T01390011  RH  042%=      5-min Rain = 0
KCR1 172346Z 01004KT 14/01 A3007 RMK A01 T01390010  RH  042%=      5-min Rain = 0
KCR1 172347Z 01004KT 14/01 A3007 RMK A01 T01390011  RH  042%=      5-min Rain = 0
KCR1 172348Z 01004KT 14/01 A3007 RMK A01 T01390011  RH  042%=      5-min Rain = 0
KCR1 172349Z 00004KT 14/01 A3007 RMK A01 T01390012  RH  042%=      5-min Rain = 0
KCR1 172350Z 01003KT 14/01 A3007 RMK A01 T01380011  RH  042%=      5-min Rain = 0
KCR1 172351Z 01004KT 14/01 A3007 RMK A01 T01380012  RH  042%=      5-min Rain = 0
KCR1 172352Z 01003KT 14/01 A3007 RMK A01 T01380011  RH  042%=      5-min Rain = 0
KCR1 172353Z 02003KT 14/01 A3007 RMK A01 T01380011  RH  042%=      5-min Rain = 0
KCR1 172354Z 01003KT 14/01 A3007 RMK A01 T01380010  RH  042%=      5-min Rain = 0
KCR1 172355Z 01003KT 14/01 A3007 RMK A01 T01380011  RH  042%=      5-min Rain = 0
KCR1 172356Z 02003KT 14/01 A3007 RMK A01 T01380012  RH  042%=      5-min Rain = 0
KCR1 172357Z 02003KT 14/01 A3007 RMK A01 T01380011  RH  042%=      5-min Rain = 0
KCR1 172358Z 02004KT 14/01 A3007 RMK A01 T01380010  RH  042%=      5-min Rain = 0
KCR1 172359Z 03004KT 14/01 A3007 RMK A01 T01390011  RH  042%=      5-min Rain = 0
KCR1 180000Z 03004KT 14/01 A3007 RMK A01 T01390010  RH  042%=      5-min Rain = 0
KCR1 180001Z 03004KT 14/01 A3007 RMK A01 T01390011  RH  041%=      5-min Rain = 0
KCR1 180002Z 03004KT 14/01 A3007 RMK A01 T01400011  RH  041%=      5-min Rain = 0
KCR1 180003Z 03004KT 14/01 A3007 RMK A01 T01400011  RH  041%=      5-min Rain = 0
KCR1 180004Z 03004KT 14/01 A3007 RMK A01 T01410011  RH  041%=      5-min Rain = 0
KCR1 180005Z 03004KT 14/01 A3007 RMK A01 T01420012  RH  041%=      5-min Rain = 0
KCR1 180006Z 03004KT 14/01 A3007 RMK A01 T01420012  RH  041%=      5-min Rain = 0
KCR1 180007Z 03004KT 14/01 A3007 RMK A01 T01420011  RH  041%=      5-min Rain = 0
KCR1 180008Z 03004KT 14/01 A3007 RMK A01 T01410011  RH  041%=      5-min Rain = 0
KCR1 180009Z 03004KT 14/01 A3007 RMK A01 T01410011  RH  041%=      5-min Rain = 0
KCR1 180010Z 04003KT 14/01 A3007 RMK A01 T01390011  RH  042%=      5-min Rain = 0
KCR1 180011Z 03003KT 14/01 A3007 RMK A01 T01370011  RH  042%=      5-min Rain = 0
KCR1 180012Z 04003KT 14/01 A3007 RMK A01 T01370012  RH  042%=      5-min Rain = 0
KCR1 180013Z 04003KT 14/01 A3007 RMK A01 T01370011  RH  042%=      5-min Rain = 0
KCR1 180014Z 04003KT 14/01 A3007 RMK A01 T01370011  RH  042%=      5-min Rain = 0
KCR1 180015Z 04003KT 14/01 A3007 RMK A01 T01370011  RH  042%=      5-min Rain = 0
KCR1 180016Z 04003KT 14/01 A3007 RMK A01 T01380011  RH  042%=      5-min Rain = 0
KCR1 180017Z 04003KT 14/01 A3007 RMK A01 T01370011  RH  042%=      5-min Rain = 0
KCR1 180018Z 04003KT 14/01 A3007 RMK A01 T01370012  RH  043%=      5-min Rain = 0
KCR1 180019Z 04003KT 14/01 A3007 RMK A01 T01360012  RH  043%=      5-min Rain = 0
KCR1 180020Z 04003KT 14/01 A3007 RMK A01 T01350011  RH  043%=      5-min Rain = 0
KCR1 180021Z 04003KT 14/01 A3007 RMK A01 T01350012  RH  043%=      5-min Rain = 0
KCR1 180022Z 04003KT 13/01 A3007 RMK A01 T01340012  RH  043%=      5-min Rain = 0
KCR1 180023Z 03002KT 13/01 A3007 RMK A01 T01330011  RH  043%=      5-min Rain = 0
KCR1 180024Z 03003KT 13/01 A3007 RMK A01 T01320011  RH  044%=      5-min Rain = 0
KCR1 180025Z 03003KT 13/01 A3007 RMK A01 T01310011  RH  044%=      5-min Rain = 0
KCR1 180026Z 03003KT 13/01 A3007 RMK A01 T01310010  RH  044%=      5-min Rain = 0
KCR1 180027Z 03002KT 13/01 A3007 RMK A01 T01310011  RH  044%=      5-min Rain = 0
KCR1 180028Z 03002KT 13/01 A3007 RMK A01 T01310011  RH  044%=      5-min Rain = 0
KCR1 180029Z 03002KT 13/01 A3007 RMK A01 T01310011  RH  044%=      5-min Rain = 0
KCR1 180030Z 04002KT 13/01 A3007 RMK A01 T01310011  RH  044%=      5-min Rain = 0
KCR1 180031Z 04002KT 13/01 A3007 RMK A01 T01310011  RH  044%=      5-min Rain = 0
KCR1 180032Z 04002KT 13/01 A3007 RMK A01 T01310011  RH  044%=      5-min Rain = 0
KCR1 180033Z 04002KT 13/01 A3007 RMK A01 T01310012  RH  044%=      5-min Rain = 0
KCR1 180034Z 03002KT 13/01 A3007 RMK A01 T01310011  RH  044%=      5-min Rain = 0
KCR1 180035Z 03002KT 13/01 A3007 RMK A01 T01310011  RH  044%=      5-min Rain = 0
KCR1 180036Z 03002KT 13/01 A3008 RMK A01 T01310011  RH  044%=      5-min Rain = 0
KCR1 180037Z 03002KT 13/01 A3008 RMK A01 T01320011  RH  044%=      5-min Rain = 0
KCR1 180038Z 03002KT 13/01 A3008 RMK A01 T01320012  RH  044%=      5-min Rain = 0
KCR1 180039Z 03002KT 13/01 A3008 RMK A01 T01310011  RH  044%=      5-min Rain = 0
KCR1 180040Z 03002KT 13/01 A3008 RMK A01 T01320011  RH  044%=      5-min Rain = 0
KCR1 180041Z 03002KT 13/01 A3008 RMK A01 T01320011  RH  044%=      5-min Rain = 0
KCR1 180042Z 03002KT 13/01 A3008 RMK A01 T01320011  RH  044%=      5-min Rain = 0
KCR1 180043Z 04002KT 13/01 A3008 RMK A01 T01310011  RH  044%=      5-min Rain = 0
KCR1 180044Z 04002KT 13/01 A3008 RMK A01 T01310012  RH  044%=      5-min Rain = 0
KCR1 180045Z 04002KT 13/01 A3008 RMK A01 T01310012  RH  044%=      5-min Rain = 0
KCR1 180046Z 04002KT 13/01 A3007 RMK A01 T01300011  RH  044%=      5-min Rain = 0
KCR1 180047Z 04002KT 13/01 A3007 RMK A01 T01290011  RH  044%=      5-min Rain = 0
KCR1 180048Z 04002KT 13/01 A3007 RMK A01 T01290012  RH  045%=      5-min Rain = 0
KCR1 180049Z 04002KT 13/01 A3007 RMK A01 T01280012  RH  045%=      5-min Rain = 0
KCR1 180050Z 03002KT 13/01 A3008 RMK A01 T01270012  RH  046%=      5-min Rain = 0
KCR1 180051Z 03002KT 13/01 A3008 RMK A01 T01270012  RH  045%=      5-min Rain = 0
KCR1 180052Z 03002KT 13/01 A3008 RMK A01 T01260011  RH  045%=      5-min Rain = 0
KCR1 180053Z 03002KT 13/01 A3008 RMK A01 T01260012  RH  046%=      5-min Rain = 0
KCR1 180054Z 03002KT 13/01 A3007 RMK A01 T01260013  RH  046%=      5-min Rain = 0
KCR1 180055Z 03002KT 13/01 A3007 RMK A01 T01250013  RH  046%=      5-min Rain = 0
KCR1 180056Z 03002KT 13/01 A3007 RMK A01 T01250012  RH  046%=      5-min Rain = 0
KCR1 180057Z 03002KT 13/01 A3007 RMK A01 T01250012  RH  046%=      5-min Rain = 0
KCR1 180058Z 03002KT 13/01 A3007 RMK A01 T01250011  RH  046%=      5-min Rain = 0
KCR1 180059Z 03001KT 13/01 A3007 RMK A01 T01250011  RH  046%=      5-min Rain = 0
KCR1 180100Z 03001KT 13/01 A3007 RMK A01 T01250012  RH  046%=      5-min Rain = 0
KCR1 180101Z 03001KT 13/01 A3008 RMK A01 T01250014  RH  047%=      5-min Rain = 0
KCR1 180102Z 03001KT 13/02 A3008 RMK A01 T01250016  RH  047%=      5-min Rain = 0
KCR1 180103Z 02001KT 12/01 A3008 RMK A01 T01240013  RH  047%=      5-min Rain = 0
KCR1 180104Z 02001KT 12/01 A3008 RMK A01 T01230011  RH  046%=      5-min Rain = 0
KCR1 180105Z 02000KT 12/01 A3008 RMK A01 T01230011  RH  046%=      5-min Rain = 0
KCR1 180106Z 00000KT 12/01 A3008 RMK A01 T01230011  RH  046%=      5-min Rain = 0
KCR1 180107Z 00000KT 12/01 A3008 RMK A01 T01230011  RH  046%=      5-min Rain = 0
KCR1 180108Z 00000KT 12/01 A3008 RMK A01 T01230011  RH  046%=      5-min Rain = 0
KCR1 180109Z 00000KT 12/01 A3008 RMK A01 T01210011  RH  047%=      5-min Rain = 0
KCR1 180110Z 00000KT 12/01 A3008 RMK A01 T01200011  RH  047%=      5-min Rain = 0
KCR1 180111Z 00000KT 12/01 A3008 RMK A01 T01190012  RH  048%=      5-min Rain = 0
KCR1 180112Z 00000KT 12/01 A3008 RMK A01 T01170013  RH  049%=      5-min Rain = 0
KCR1 180113Z 00000KT 11/01 A3008 RMK A01 T01140014  RH  050%=      5-min Rain = 0
KCR1 180114Z 00000KT 11/01 A3008 RMK A01 T01120014  RH  051%=      5-min Rain = 0
KCR1 180115Z 00000KT 11/01 A3008 RMK A01 T01120014  RH  051%=      5-min Rain = 0
KCR1 180116Z 33000KT 11/01 A3008 RMK A01 T01110013  RH  051%=      5-min Rain = 0
KCR1 180117Z 33001KT 11/01 A3008 RMK A01 T01100014  RH  051%=      5-min Rain = 0
KCR1 180118Z 33001KT 11/02 A3008 RMK A01 T01090016  RH  052%=      5-min Rain = 0
KCR1 180119Z 33001KT 11/02 A3008 RMK A01 T01090015  RH  052%=      5-min Rain = 0
KCR1 180120Z 33001KT 11/01 A3008 RMK A01 T01110014  RH  051%=      5-min Rain = 0
KCR1 180121Z 33000KT 11/01 A3008 RMK A01 T01140014  RH  050%=      5-min Rain = 0
KCR1 180122Z 33001KT 12/01 A3008 RMK A01 T01150013  RH  049%=      5-min Rain = 0
KCR1 180123Z 00000KT 12/01 A3008 RMK A01 T01160012  RH  049%=      5-min Rain = 0
KCR1 180124Z 00000KT 12/01 A3008 RMK A01 T01160012  RH  049%=      5-min Rain = 0
KCR1 180125Z 00000KT 12/01 A3008 RMK A01 T01160012  RH  049%=      5-min Rain = 0
KCR1 180126Z 00000KT 12/01 A3008 RMK A01 T01160012  RH  049%=      5-min Rain = 0
KCR1 180127Z 00000KT 12/01 A3008 RMK A01 T01160014  RH  050%=      5-min Rain = 0
KCR1 180128Z 00000KT 11/01 A3008 RMK A01 T01110014  RH  051%=      5-min Rain = 0
KCR1 180129Z 00000KT 11/01 A3008 RMK A01 T01070013  RH  052%=      5-min Rain = 0
KCR1 180130Z 00000KT 10/01 A3008 RMK A01 T01040013  RH  053%=      5-min Rain = 0
KCR1 180131Z 00000KT 10/01 A3008 RMK A01 T01020014  RH  054%=      5-min Rain = 0
KCR1 180132Z 00000KT 10/01 A3008 RMK A01 T01010014  RH  055%=      5-min Rain = 0
KCR1 180133Z 00000KT 10/01 A3008 RMK A01 T00990014  RH  056%=      5-min Rain = 0
KCR1 180134Z 00000KT 10/02 A3008 RMK A01 T00970017  RH  057%=      5-min Rain = 0
KCR1 180135Z 00000KT 10/02 A3008 RMK A01 T00970019  RH  058%=      5-min Rain = 0
KCR1 180136Z 00000KT 10/02 A3008 RMK A01 T00960017  RH  058%=      5-min Rain = 0
KCR1 180137Z 00000KT 10/02 A3008 RMK A01 T00960017  RH  058%=      5-min Rain = 0
KCR1 180138Z 00000KT 10/02 A3008 RMK A01 T00960015  RH  057%=      5-min Rain = 0
KCR1 180139Z 00000KT 10/01 A3008 RMK A01 T00960013  RH  056%=      5-min Rain = 0
KCR1 180140Z 00000KT 10/01 A3008 RMK A01 T00950014  RH  057%=      5-min Rain = 0
KCR1 180141Z 00000KT 09/02 A3008 RMK A01 T00930015  RH  058%=      5-min Rain = 0
KCR1 180142Z 27000KT 09/01 A3008 RMK A01 T00930014  RH  058%=      5-min Rain = 0
KCR1 180143Z 27001KT 09/01 A3008 RMK A01 T00930013  RH  058%=      5-min Rain = 0
KCR1 180144Z 27001KT 09/01 A3008 RMK A01 T00920013  RH  058%=      5-min Rain = 0
KCR1 180145Z 26001KT 09/01 A3008 RMK A01 T00920013  RH  058%=      5-min Rain = 0
KCR1 180146Z 26001KT 09/01 A3008 RMK A01 T00910014  RH  058%=      5-min Rain = 0
KCR1 180147Z 26001KT 09/01 A3008 RMK A01 T00900014  RH  059%=      5-min Rain = 0
KCR1 180148Z 26001KT 09/01 A3008 RMK A01 T00910014  RH  058%=      5-min Rain = 0
KCR1 180149Z 26002KT 09/01 A3008 RMK A01 T00940014  RH  057%=      5-min Rain = 0
KCR1 180150Z 26002KT 10/02 A3008 RMK A01 T00950015  RH  057%=      5-min Rain = 0
KCR1 180151Z 26003KT 10/02 A3008 RMK A01 T00950015  RH  057%=      5-min Rain = 0
KCR1 180152Z 26003KT 10/02 A3008 RMK A01 T00960015  RH  057%=      5-min Rain = 0
KCR1 180153Z 26003KT 10/01 A3008 RMK A01 T00970014  RH  056%=      5-min Rain = 0
KCR1 180154Z 26003KT 10/01 A3008 RMK A01 T00990014  RH  055%=      5-min Rain = 0
KCR1 180155Z 25003KT 10/01 A3008 RMK A01 T01010013  RH  054%=      5-min Rain = 0
KCR1 180156Z 25003KT 10/01 A3008 RMK A01 T01030013  RH  053%=      5-min Rain = 0
KCR1 180157Z 25003KT 11/01 A3008 RMK A01 T01050013  RH  053%=      5-min Rain = 0
KCR1 180158Z 25002KT 11/01 A3008 RMK A01 T01060012  RH  052%=      5-min Rain = 0
KCR1 180159Z 25002KT 11/01 A3008 RMK A01 T01070012  RH  052%=      5-min Rain = 0
KCR1 180200Z 25002KT 11/01 A3008 RMK A01 T01070013  RH  052%=      5-min Rain = 0
KCR1 180201Z 25002KT 11/01 A3008 RMK A01 T01080013  RH  052%=      5-min Rain = 0
KCR1 180202Z 25002KT 11/01 A3008 RMK A01 T01080012  RH  052%=      5-min Rain = 0
KCR1 180203Z 24002KT 11/01 A3008 RMK A01 T01080013  RH  052%=      5-min Rain = 0
KCR1 180204Z 24002KT 11/01 A3008 RMK A01 T01070013  RH  052%=      5-min Rain = 0
KCR1 180205Z 24001KT 11/01 A3008 RMK A01 T01060013  RH  052%=      5-min Rain = 0
KCR1 180206Z 24001KT 11/01 A3008 RMK A01 T01060013  RH  052%=      5-min Rain = 0
KCR1 180207Z 24001KT 11/01 A3008 RMK A01 T01060013  RH  053%=      5-min Rain = 0
KCR1 180208Z 25001KT 11/01 A3008 RMK A01 T01050013  RH  053%=      5-min Rain = 0
KCR1 180209Z 25001KT 11/01 A3008 RMK A01 T01050013  RH  053%=      5-min Rain = 0
KCR1 180210Z 25001KT 11/01 A3008 RMK A01 T01050014  RH  053%=      5-min Rain = 0
KCR1 180211Z 25001KT 11/02 A3008 RMK A01 T01050015  RH  054%=      5-min Rain = 0
KCR1 180212Z 25001KT 11/02 A3008 RMK A01 T01050015  RH  054%=      5-min Rain = 0
KCR1 180213Z 25001KT 11/02 A3008 RMK A01 T01050015  RH  053%=      5-min Rain = 0
KCR1 180214Z 25001KT 11/01 A3008 RMK A01 T01050013  RH  053%=      5-min Rain = 0
KCR1 180215Z 25001KT 11/01 A3008 RMK A01 T01060013  RH  052%=      5-min Rain = 0
KCR1 180216Z 25001KT 11/01 A3008 RMK A01 T01060012  RH  052%=      5-min Rain = 0
KCR1 180217Z 25001KT 11/01 A3008 RMK A01 T01070012  RH  052%=      5-min Rain = 0
KCR1 180218Z 25001KT 11/01 A3008 RMK A01 T01080013  RH  052%=      5-min Rain = 0
KCR1 180219Z 25000KT 11/02 A3008 RMK A01 T01090015  RH  052%=      5-min Rain = 0
KCR1 180220Z 00000KT 11/01 A3008 RMK A01 T01080013  RH  052%=      5-min Rain = 0
KCR1 180221Z 00000KT 11/01 A3009 RMK A01 T01080012  RH  051%=      5-min Rain = 0
KCR1 180222Z 00000KT 11/01 A3009 RMK A01 T01080012  RH  052%=      5-min Rain = 0
KCR1 180223Z 00000KT 11/01 A3009 RMK A01 T01080014  RH  052%=      5-min Rain = 0
KCR1 180224Z 00000KT 11/01 A3009 RMK A01 T01070014  RH  053%=      5-min Rain = 0
KCR1 180225Z 00000KT 11/01 A3009 RMK A01 T01060013  RH  052%=      5-min Rain = 0
KCR1 180226Z 00000KT 11/01 A3009 RMK A01 T01060014  RH  053%=      5-min Rain = 0
KCR1 180227Z 00000KT 11/02 A3009 RMK A01 T01060015  RH  053%=      5-min Rain = 0
KCR1 180228Z 00000KT 11/01 A3009 RMK A01 T01060013  RH  053%=      5-min Rain = 0
KCR1 180229Z 00000KT 11/01 A3009 RMK A01 T01060011  RH  052%=      5-min Rain = 0
KCR1 180230Z 00000KT 11/01 A3009 RMK A01 T01060011  RH  052%=      5-min Rain = 0
KCR1 180231Z 00000KT 11/01 A3009 RMK A01 T01070011  RH  051%=      5-min Rain = 0
KCR1 180232Z 00000KT 11/01 A3009 RMK A01 T01070011  RH  051%=      5-min Rain = 0
KCR1 180233Z 00000KT 11/01 A3009 RMK A01 T01080011  RH  051%=      5-min Rain = 0
KCR1 180234Z 00000KT 11/01 A3009 RMK A01 T01080011  RH  051%=      5-min Rain = 0
KCR1 180235Z 00000KT 11/01 A3009 RMK A01 T01080012  RH  051%=      5-min Rain = 0
KCR1 180236Z 00000KT 11/01 A3009 RMK A01 T01080011  RH  051%=      5-min Rain = 0
KCR1 180237Z 00000KT 11/01 A3009 RMK A01 T01080014  RH  052%=      5-min Rain = 0
KCR1 180238Z 00000KT 11/01 A3009 RMK A01 T01060012  RH  052%=      5-min Rain = 0
KCR1 180239Z 00000KT 11/01 A3009 RMK A01 T01060012  RH  052%=      5-min Rain = 0
KCR1 180240Z 00000KT 11/01 A3009 RMK A01 T01050012  RH  053%=      5-min Rain = 0
KCR1 180241Z 00000KT 11/01 A3009 RMK A01 T01060012  RH  052%=      5-min Rain = 0
KCR1 180242Z 00000KT 11/01 A3009 RMK A01 T01080013  RH  052%=      5-min Rain = 0
KCR1 180243Z 00000KT 11/01 A3009 RMK A01 T01070014  RH  052%=      5-min Rain = 0
KCR1 180244Z 00000KT 11/01 A3009 RMK A01 T01060012  RH  052%=      5-min Rain = 0
KCR1 180245Z 00000KT 11/01 A3009 RMK A01 T01070011  RH  052%=      5-min Rain = 0
KCR1 180246Z 00000KT 11/01 A3009 RMK A01 T01060013  RH  052%=      5-min Rain = 0
KCR1 180247Z 00000KT 11/02 A3009 RMK A01 T01060015  RH  053%=      5-min Rain = 0
KCR1 180248Z 00000KT 10/02 A3009 RMK A01 T01030015  RH  054%=      5-min Rain = 0
KCR1 180249Z 00000KT 10/01 A3009 RMK A01 T01010014  RH  055%=      5-min Rain = 0
KCR1 180250Z 00000KT 10/01 A3009 RMK A01 T01000012  RH  054%=      5-min Rain = 0
KCR1 180251Z 00000KT 10/01 A3009 RMK A01 T01000011  RH  054%=      5-min Rain = 0
KCR1 180252Z 00000KT 10/01 A3009 RMK A01 T01020011  RH  053%=      5-min Rain = 0
KCR1 180253Z 00000KT 10/01 A3009 RMK A01 T01030012  RH  053%=      5-min Rain = 0
KCR1 180254Z 00000KT 10/02 A3009 RMK A01 T01030015  RH  054%=      5-min Rain = 0
KCR1 180255Z 00000KT 10/01 A3009 RMK A01 T01030013  RH  054%=      5-min Rain = 0
KCR1 180256Z 00000KT 10/01 A3009 RMK A01 T01030011  RH  053%=      5-min Rain = 0
KCR1 180257Z 00000KT 10/01 A3009 RMK A01 T01030010  RH  053%=      5-min Rain = 0
KCR1 180258Z 00000KT 10/01 A3009 RMK A01 T01030010  RH  053%=      5-min Rain = 0
KCR1 180259Z 00000KT 10/01 A3009 RMK A01 T01020011  RH  053%=      5-min Rain = 0
KCR1 180300Z 00000KT 10/01 A3009 RMK A01 T01020011  RH  054%=      5-min Rain = 0
KCR1 180301Z 00000KT 10/01 A3009 RMK A01 T01020011  RH  053%=      5-min Rain = 0
KCR1 180302Z 00000KT 10/01 A3009 RMK A01 T01010010  RH  053%=      5-min Rain = 0
KCR1 180303Z 00000KT 10/01 A3009 RMK A01 T01020010  RH  052%=      5-min Rain = 0
KCR1 180304Z 00000KT 10/01 A3009 RMK A01 T01040009  RH  052%=      5-min Rain = 0
KCR1 180305Z 00000KT 10/01 A3009 RMK A01 T01040010  RH  052%=      5-min Rain = 0
KCR1 180306Z 00000KT 10/01 A3009 RMK A01 T01040011  RH  052%=      5-min Rain = 0
KCR1 180307Z 00000KT 10/01 A3009 RMK A01 T01030011  RH  053%=      5-min Rain = 0
KCR1 180308Z 00000KT 10/01 A3009 RMK A01 T01020010  RH  053%=      5-min Rain = 0
KCR1 180309Z 00000KT 10/01 A3009 RMK A01 T01010011  RH  054%=      5-min Rain = 0
KCR1 180310Z 00000KT 10/01 A3009 RMK A01 T01000011  RH  054%=      5-min Rain = 0
KCR1 180311Z 00000KT 10/01 A3009 RMK A01 T01000011  RH  054%=      5-min Rain = 0
KCR1 180312Z 00000KT 10/01 A3009 RMK A01 T01000011  RH  054%=      5-min Rain = 0
KCR1 180313Z 00000KT 10/01 A3009 RMK A01 T01000010  RH  054%=      5-min Rain = 0
KCR1 180314Z 00000KT 10/01 A3009 RMK A01 T01000010  RH  054%=      5-min Rain = 0
KCR1 180315Z 00000KT 10/01 A3009 RMK A01 T01000010  RH  054%=      5-min Rain = 0
KCR1 180316Z 00000KT 10/01 A3009 RMK A01 T01000010  RH  054%=      5-min Rain = 0
KCR1 180317Z 00000KT 10/01 A3009 RMK A01 T00990010  RH  054%=      5-min Rain = 0
KCR1 180318Z 00000KT 10/01 A3009 RMK A01 T00980010  RH  054%=      5-min Rain = 0
KCR1 180319Z 00000KT 10/01 A3009 RMK A01 T00980009  RH  054%=      5-min Rain = 0
KCR1 180320Z 00000KT 10/01 A3009 RMK A01 T00980010  RH  054%=      5-min Rain = 0
KCR1 180321Z 23001KT 10/01 A3009 RMK A01 T00980011  RH  055%=      5-min Rain = 0
KCR1 180322Z 23001KT 10/01 A3009 RMK A01 T00980011  RH  054%=      5-min Rain = 0
KCR1 180323Z 23001KT 10/01 A3009 RMK A01 T00990010  RH  054%=      5-min Rain = 0
KCR1 180324Z 23001KT 10/01 A3009 RMK A01 T01000010  RH  054%=      5-min Rain = 0
KCR1 180325Z 23001KT 10/01 A3009 RMK A01 T01010010  RH  053%=      5-min Rain = 0
KCR1 180326Z 23001KT 10/01 A3009 RMK A01 T01020009  RH  052%=      5-min Rain = 0
KCR1 180327Z 23001KT 10/01 A3009 RMK A01 T01030009  RH  052%=      5-min Rain = 0
KCR1 180328Z 23001KT 10/01 A3009 RMK A01 T01030010  RH  053%=      5-min Rain = 0
KCR1 180329Z 23001KT 10/01 A3009 RMK A01 T01030010  RH  053%=      5-min Rain = 0
KCR1 180330Z 23001KT 10/01 A3009 RMK A01 T01030009  RH  052%=      5-min Rain = 0
KCR1 180331Z 23001KT 10/01 A3009 RMK A01 T01030010  RH  052%=      5-min Rain = 0
KCR1 180332Z 23001KT 10/01 A3009 RMK A01 T01030009  RH  052%=      5-min Rain = 0
KCR1 180333Z 23002KT 10/01 A3009 RMK A01 T01030009  RH  052%=      5-min Rain = 0
KCR1 180334Z 23002KT 10/01 A3009 RMK A01 T01030009  RH  052%=      5-min Rain = 0
KCR1 180335Z 23002KT 10/01 A3009 RMK A01 T01040009  RH  052%=      5-min Rain = 0
KCR1 180336Z 23002KT 10/01 A3009 RMK A01 T01040009  RH  052%=      5-min Rain = 0
KCR1 180337Z 22002KT 10/01 A3009 RMK A01 T01040009  RH  052%=      5-min Rain = 0
KCR1 180338Z 22002KT 10/01 A3009 RMK A01 T01040009  RH  052%=      5-min Rain = 0
KCR1 180339Z 22002KT 10/01 A3009 RMK A01 T01030010  RH  052%=      5-min Rain = 0
KCR1 180340Z 22002KT 10/01 A3009 RMK A01 T01020009  RH  053%=      5-min Rain = 0
KCR1 180341Z 21002KT 10/01 A3009 RMK A01 T01010009  RH  053%=      5-min Rain = 0
KCR1 180342Z 21002KT 10/01 A3008 RMK A01 T01020009  RH  053%=      5-min Rain = 0
KCR1 180343Z 22002KT 10/01 A3008 RMK A01 T01020009  RH  052%=      5-min Rain = 0
KCR1 180344Z 22002KT 10/01 A3008 RMK A01 T01030009  RH  052%=      5-min Rain = 0
KCR1 180345Z 22003KT 10/01 A3008 RMK A01 T01040009  RH  052%=      5-min Rain = 0
KCR1 180346Z 22003KT 10/01 A3008 RMK A01 T01040010  RH  052%=      5-min Rain = 0
KCR1 180347Z 22003KT 10/01 A3008 RMK A01 T01020010  RH  053%=      5-min Rain = 0
KCR1 180348Z 23003KT 10/01 A3008 RMK A01 T01020010  RH  053%=      5-min Rain = 0
KCR1 180349Z 23003KT 10/01 A3009 RMK A01 T01010010  RH  053%=      5-min Rain = 0
KCR1 180350Z 23003KT 10/01 A3009 RMK A01 T01010009  RH  053%=      5-min Rain = 0
KCR1 180351Z 24003KT 10/01 A3009 RMK A01 T01010009  RH  053%=      5-min Rain = 0
KCR1 180352Z 24003KT 10/01 A3009 RMK A01 T01020009  RH  053%=      5-min Rain = 0
KCR1 180353Z 24002KT 10/01 A3009 RMK A01 T01020009  RH  052%=      5-min Rain = 0
KCR1 180354Z 24002KT 10/01 A3008 RMK A01 T01020009  RH  052%=      5-min Rain = 0
KCR1 180355Z 24002KT 10/01 A3008 RMK A01 T01020009  RH  052%=      5-min Rain = 0
KCR1 180356Z 24002KT 10/01 A3008 RMK A01 T01010009  RH  053%=      5-min Rain = 0
KCR1 180357Z 24002KT 10/01 A3008 RMK A01 T01000010  RH  053%=      5-min Rain = 0
KCR1 180358Z 24003KT 10/01 A3008 RMK A01 T01000010  RH  053%=      5-min Rain = 0
KCR1 180359Z 24003KT 10/01 A3008 RMK A01 T00990010  RH  054%=      5-min Rain = 0
KCR1 180400Z 24003KT 10/01 A3008 RMK A01 T00980010  RH  054%=      5-min Rain = 0
KCR1 180401Z 24003KT 10/01 A3008 RMK A01 T00980010  RH  054%=      5-min Rain = 0
KCR1 180402Z 24003KT 10/01 A3008 RMK A01 T00980009  RH  054%=      5-min Rain = 0
KCR1 180403Z 25003KT 10/01 A3008 RMK A01 T00990009  RH  054%=      5-min Rain = 0
KCR1 180404Z 25003KT 10/01 A3008 RMK A01 T01000009  RH  053%=      5-min Rain = 0
KCR1 180405Z 25003KT 10/01 A3008 RMK A01 T01000010  RH  054%=      5-min Rain = 0
KCR1 180406Z 25003KT 10/01 A3008 RMK A01 T00980011  RH  054%=      5-min Rain = 0
KCR1 180407Z 24003KT 10/01 A3008 RMK A01 T00970010  RH  055%=      5-min Rain = 0
KCR1 180408Z 24003KT 10/01 A3008 RMK A01 T00960011  RH  055%=      5-min Rain = 0
KCR1 180409Z 24003KT 09/01 A3008 RMK A01 T00940009  RH  055%=      5-min Rain = 0
KCR1 180410Z 24003KT 09/01 A3008 RMK A01 T00940009  RH  055%=      5-min Rain = 0
KCR1 180411Z 24003KT 10/01 A3008 RMK A01 T00950010  RH  055%=      5-min Rain = 0
KCR1 180412Z 24003KT 09/01 A3008 RMK A01 T00940011  RH  056%=      5-min Rain = 0
KCR1 180413Z 24003KT 09/01 A3008 RMK A01 T00940010  RH  056%=      5-min Rain = 0
KCR1 180414Z 24003KT 10/01 A3008 RMK A01 T00950009  RH  055%=      5-min Rain = 0
KCR1 180415Z 24003KT 10/01 A3008 RMK A01 T00970009  RH  054%=      5-min Rain = 0
KCR1 180416Z 24003KT 10/01 A3008 RMK A01 T00980009  RH  054%=      5-min Rain = 0
KCR1 180417Z 24003KT 10/01 A3008 RMK A01 T01000009  RH  053%=      5-min Rain = 0
KCR1 180418Z 24003KT 10/01 A3008 RMK A01 T01010009  RH  053%=      5-min Rain = 0
KCR1 180419Z 24003KT 10/01 A3008 RMK A01 T01010008  RH  052%=      5-min Rain = 0
KCR1 180420Z 24002KT 10/01 A3008 RMK A01 T01010009  RH  053%=      5-min Rain = 0
KCR1 180421Z 24003KT 10/01 A3008 RMK A01 T01000009  RH  053%=      5-min Rain = 0
KCR1 180422Z 24003KT 10/01 A3008 RMK A01 T01000008  RH  053%=      5-min Rain = 0
KCR1 180423Z 24003KT 10/01 A3008 RMK A01 T01000008  RH  053%=      5-min Rain = 0
KCR1 180424Z 24003KT 10/01 A3008 RMK A01 T01010008  RH  053%=      5-min Rain = 0
KCR1 180425Z 24004KT 10/01 A3008 RMK A01 T01000009  RH  053%=      5-min Rain = 0
KCR1 180426Z 24004KT 10/01 A3008 RMK A01 T00980009  RH  054%=      5-min Rain = 0
KCR1 180427Z 24004KT 10/01 A3008 RMK A01 T00960009  RH  055%=      5-min Rain = 0
KCR1 180428Z 24004KT 09/01 A3008 RMK A01 T00940009  RH  055%=      5-min Rain = 0
KCR1 180429Z 24003KT 09/01 A3008 RMK A01 T00930009  RH  056%=      5-min Rain = 0
KCR1 180430Z 24003KT 09/01 A3008 RMK A01 T00940009  RH  055%=      5-min Rain = 0
KCR1 180431Z 25003KT 10/01 A3008 RMK A01 T00980009  RH  054%=      5-min Rain = 0
KCR1 180432Z 25003KT 10/01 A3008 RMK A01 T01000009  RH  053%=      5-min Rain = 0
KCR1 180433Z 25003KT 10/01 A3008 RMK A01 T01000009  RH  053%=      5-min Rain = 0
KCR1 180434Z 25003KT 10/01 A3007 RMK A01 T01000008  RH  053%=      5-min Rain = 0
KCR1 180435Z 24003KT 10/01 A3007 RMK A01 T01000008  RH  053%=      5-min Rain = 0
KCR1 180436Z 24003KT 10/01 A3007 RMK A01 T00990009  RH  053%=      5-min Rain = 0
KCR1 180437Z 24004KT 10/01 A3007 RMK A01 T00970010  RH  054%=      5-min Rain = 0
KCR1 180438Z 24004KT 09/01 A3007 RMK A01 T00940010  RH  055%=      5-min Rain = 0
KCR1 180439Z 24004KT 09/01 A3007 RMK A01 T00920009  RH  056%=      5-min Rain = 0
KCR1 180440Z 24004KT 09/01 A3007 RMK A01 T00920010  RH  056%=      5-min Rain = 0
KCR1 180441Z 24004KT 09/01 A3007 RMK A01 T00920010  RH  056%=      5-min Rain = 0
KCR1 180442Z 24004KT 09/01 A3007 RMK A01 T00930009  RH  056%=      5-min Rain = 0
KCR1 180443Z 24004KT 10/01 A3007 RMK A01 T00950009  RH  055%=      5-min Rain = 0
KCR1 180444Z 24004KT 10/01 A3007 RMK A01 T00970009  RH  054%=      5-min Rain = 0
KCR1 180445Z 24004KT 10/01 A3007 RMK A01 T00980009  RH  054%=      5-min Rain = 0
KCR1 180446Z 23004KT 10/01 A3007 RMK A01 T00990009  RH  054%=      5-min Rain = 0
KCR1 180447Z 23004KT 10/01 A3007 RMK A01 T01000008  RH  053%=      5-min Rain = 0
KCR1 180448Z 23005KT 10/01 A3007 RMK A01 T01010009  RH  053%=      5-min Rain = 0
KCR1 180449Z 23005KT 10/01 A3007 RMK A01 T01000009  RH  053%=      5-min Rain = 0
KCR1 180450Z 23005KT 10/01 A3007 RMK A01 T00970009  RH  054%=      5-min Rain = 0
KCR1 180451Z 23005KT 10/01 A3007 RMK A01 T00960009  RH  055%=      5-min Rain = 0
KCR1 180452Z 23005KT 10/01 A3007 RMK A01 T00960010  RH  055%=      5-min Rain = 0
KCR1 180453Z 23005KT 10/01 A3007 RMK A01 T00960009  RH  055%=      5-min Rain = 0
KCR1 180454Z 24005KT 10/01 A3007 RMK A01 T00960009  RH  054%=      5-min Rain = 0
KCR1 180455Z 24005KT 10/01 A3007 RMK A01 T00970009  RH  054%=      5-min Rain = 0
KCR1 180456Z 24005KT 10/01 A3007 RMK A01 T00970009  RH  054%=      5-min Rain = 0
KCR1 180457Z 24005KT 10/01 A3007 RMK A01 T00970009  RH  054%=      5-min Rain = 0
KCR1 180458Z 24005KT 10/01 A3007 RMK A01 T00970009  RH  054%=      5-min Rain = 0
KCR1 180459Z 24005KT 10/01 A3007 RMK A01 T00970008  RH  054%=      5-min Rain = 0
KCR1 180500Z 24005KT 10/01 A3007 RMK A01 T00960008  RH  054%=      5-min Rain = 0
KCR1 180501Z 24005KT 10/01 A3007 RMK A01 T00950008  RH  055%=      5-min Rain = 0
KCR1 180502Z 24005KT 09/01 A3007 RMK A01 T00930009  RH  056%=      5-min Rain = 0
KCR1 180503Z 24005KT 09/01 A3007 RMK A01 T00910009  RH  056%=      5-min Rain = 0
KCR1 180504Z 24005KT 09/01 A3007 RMK A01 T00910010  RH  057%=      5-min Rain = 0
KCR1 180505Z 24005KT 09/01 A3006 RMK A01 T00910009  RH  056%=      5-min Rain = 0
KCR1 180506Z 24006KT 09/01 A3006 RMK A01 T00910009  RH  056%=      5-min Rain = 0
KCR1 180507Z 24006KT 09/01 A3006 RMK A01 T00900009  RH  057%=      5-min Rain = 0
KCR1 180508Z 24006KT 09/01 A3006 RMK A01 T00900010  RH  057%=      5-min Rain = 0
KCR1 180509Z 24006KT 09/01 A3006 RMK A01 T00890010  RH  057%=      5-min Rain = 0
KCR1 180510Z 24006KT 09/01 A3006 RMK A01 T00890010  RH  058%=      5-min Rain = 0
KCR1 180511Z 24006KT 09/01 A3006 RMK A01 T00880009  RH  058%=      5-min Rain = 0
KCR1 180512Z 24006KT 09/01 A3006 RMK A01 T00880009  RH  058%=      5-min Rain = 0
KCR1 180513Z 24006KT 09/01 A3006 RMK A01 T00870009  RH  058%=      5-min Rain = 0
KCR1 180514Z 24006KT 09/01 A3006 RMK A01 T00860009  RH  058%=      5-min Rain = 0
KCR1 180515Z 24005KT 09/01 A3006 RMK A01 T00860009  RH  058%=      5-min Rain = 0
KCR1 180516Z 24005KT 09/01 A3006 RMK A01 T00860009  RH  058%=      5-min Rain = 0
KCR1 180517Z 24005KT 09/01 A3006 RMK A01 T00860009  RH  058%=      5-min Rain = 0
KCR1 180518Z 24005KT 09/01 A3006 RMK A01 T00860008  RH  058%=      5-min Rain = 0
KCR1 180519Z 24005KT 09/01 A3006 RMK A01 T00860008  RH  058%=      5-min Rain = 0
KCR1 180520Z 24005KT 09/01 A3006 RMK A01 T00860009  RH  058%=      5-min Rain = 0
KCR1 180521Z 24005KT 09/01 A3006 RMK A01 T00860009  RH  058%=      5-min Rain = 0
KCR1 180522Z 24005KT 09/01 A3006 RMK A01 T00850009  RH  058%=      5-min Rain = 0
KCR1 180523Z 24005KT 09/01 A3006 RMK A01 T00850009  RH  059%=      5-min Rain = 0
KCR1 180524Z 24005KT 09/01 A3006 RMK A01 T00850009  RH  059%=      5-min Rain = 0
KCR1 180525Z 24005KT 09/01 A3006 RMK A01 T00850009  RH  059%=      5-min Rain = 0
KCR1 180526Z 25005KT 09/01 A3006 RMK A01 T00850009  RH  059%=      5-min Rain = 0
KCR1 180527Z 25005KT 09/01 A3006 RMK A01 T00860009  RH  059%=      5-min Rain = 0
KCR1 180528Z 25005KT 09/01 A3006 RMK A01 T00860009  RH  059%=      5-min Rain = 0
KCR1 180529Z 25005KT 09/01 A3006 RMK A01 T00860009  RH  058%=      5-min Rain = 0
KCR1 180530Z 25005KT 09/01 A3006 RMK A01 T00860009  RH  058%=      5-min Rain = 0
KCR1 180531Z 25005KT 09/01 A3006 RMK A01 T00870010  RH  058%=      5-min Rain = 0
KCR1 180532Z 25005KT 09/01 A3005 RMK A01 T00870010  RH  059%=      5-min Rain = 0
KCR1 180533Z 25004KT 09/01 A3005 RMK A01 T00870010  RH  058%=      5-min Rain = 0
KCR1 180534Z 26004KT 09/01 A3005 RMK A01 T00880010  RH  058%=      5-min Rain = 0
KCR1 180535Z 26005KT 09/01 A3005 RMK A01 T00880010  RH  058%=      5-min Rain = 0
KCR1 180536Z 26005KT 09/01 A3005 RMK A01 T00880010  RH  058%=      5-min Rain = 0
KCR1 180537Z 26005KT 09/01 A3005 RMK A01 T00880010  RH  058%=      5-min Rain = 0
KCR1 180538Z 26005KT 09/01 A3005 RMK A01 T00880010  RH  058%=      5-min Rain = 0
KCR1 180539Z 25005KT 09/01 A3005 RMK A01 T00880009  RH  058%=      5-min Rain = 0
KCR1 180540Z 25004KT 09/01 A3005 RMK A01 T00890009  RH  057%=      5-min Rain = 0
KCR1 180541Z 25004KT 09/01 A3005 RMK A01 T00910010  RH  057%=      5-min Rain = 0
KCR1 180542Z 25004KT 09/01 A3005 RMK A01 T00920011  RH  057%=      5-min Rain = 0
KCR1 180543Z 25004KT 09/01 A3005 RMK A01 T00930011  RH  057%=      5-min Rain = 0
KCR1 180544Z 26004KT 09/01 A3005 RMK A01 T00920011  RH  057%=      5-min Rain = 0
KCR1 180545Z 26004KT 09/01 A3005 RMK A01 T00910010  RH  057%=      5-min Rain = 0
KCR1 180546Z 26004KT 09/01 A3005 RMK A01 T00910010  RH  057%=      5-min Rain = 0
KCR1 180547Z 26004KT 09/01 A3005 RMK A01 T00910010  RH  057%=      5-min Rain = 0
KCR1 180548Z 26004KT 09/01 A3005 RMK A01 T00900011  RH  057%=      5-min Rain = 0
KCR1 180549Z 26004KT 09/01 A3005 RMK A01 T00900011  RH  058%=      5-min Rain = 0
KCR1 180550Z 26004KT 09/01 A3004 RMK A01 T00900011  RH  058%=      5-min Rain = 0
KCR1 180551Z 26004KT 09/01 A3004 RMK A01 T00910011  RH  057%=      5-min Rain = 0
KCR1 180552Z 26004KT 09/01 A3004 RMK A01 T00910011  RH  057%=      5-min Rain = 0
KCR1 180553Z 25004KT 09/01 A3004 RMK A01 T00920011  RH  057%=      5-min Rain = 0
KCR1 180554Z 25004KT 09/01 A3004 RMK A01 T00910011  RH  057%=      5-min Rain = 0
KCR1 180555Z 25004KT 09/01 A3004 RMK A01 T00910011  RH  057%=      5-min Rain = 0
KCR1 180556Z 25004KT 09/01 A3004 RMK A01 T00910010  RH  057%=      5-min Rain = 0
KCR1 180557Z 25004KT 09/01 A3004 RMK A01 T00910010  RH  057%=      5-min Rain = 0
KCR1 180558Z 25004KT 09/01 A3004 RMK A01 T00910010  RH  057%=      5-min Rain = 0
KCR1 180559Z 25004KT 09/01 A3004 RMK A01 T00910010  RH  057%=      5-min Rain = 0

Page generated in 0.0858 seconds.